Wetterdaten: Donnerstag, 14.10.2021
Datum Zeit Temperatur Temp. +5 cm Temp. -10 cm Feuchte A. Luftdruck Regen Wind Richtung Richtung Zeit Sonne UV-I Solarstrahlg Taupunkt Windchill Windben
14.10.2021 00:00 8,7 C 7,8 C 11,7 C 86 % 1024,6 hPa 0,0 l/m 4,1 km/h (1 Bft) NW 307 0 min 0,0 UV-I 0 W/m 6,5 C 8,7 C 6,4 km/h (2 Bft)
14.10.2021 00:02 8,8 C 7,8 C 11,7 C 86 % 1024,6 hPa 0,0 l/m 0,3 km/h (0 Bft) NW 307 0 min 0,0 UV-I 0 W/m 6,6 C 8,8 C 1,6 km/h (1 Bft)
14.10.2021 00:04 8,7 C 7,8 C 11,7 C 86 % 1024,5 hPa 0,0 l/m 0,6 km/h (0 Bft) NW 307 0 min 0,0 UV-I 0 W/m 6,5 C 8,7 C 3,2 km/h (1 Bft)
14.10.2021 00:06 8,7 C 7,8 C 11,7 C 86 % 1024,4 hPa 0,0 l/m 1,1 km/h (1 Bft) NW 307 0 min 0,0 UV-I 0 W/m 6,5 C 8,7 C 3,2 km/h (1 Bft)
14.10.2021 00:08 8,7 C 7,8 C 11,7 C 86 % 1024,4 hPa 0,0 l/m 1,7 km/h (1 Bft) NW 310 0 min 0,0 UV-I 0 W/m 6,5 C 8,7 C 4,8 km/h (1 Bft)
14.10.2021 00:10 8,7 C 7,2 C 11,7 C 86 % 1024,4 hPa 0,0 l/m 1,4 km/h (1 Bft) NW 310 0 min 0,0 UV-I 0 W/m 6,5 C 8,7 C 4,8 km/h (1 Bft)
14.10.2021 00:12 8,7 C 7,2 C 11,7 C 86 % 1024,4 hPa 0,0 l/m 2,0 km/h (1 Bft) NW 306 0 min 0,0 UV-I 0 W/m 6,5 C 8,7 C 4,8 km/h (1 Bft)
14.10.2021 00:14 8,7 C 7,8 C 11,7 C 86 % 1024,4 hPa 0,0 l/m 3,2 km/h (1 Bft) W-NW 299 0 min 0,0 UV-I 0 W/m 6,5 C 8,7 C 6,4 km/h (2 Bft)
14.10.2021 00:16 8,7 C 7,8 C 11,7 C 86 % 1024,4 hPa 0,0 l/m 3,5 km/h (1 Bft) NW 309 0 min 0,0 UV-I 0 W/m 6,5 C 8,7 C 4,8 km/h (1 Bft)
14.10.2021 00:18 8,8 C 7,8 C 11,7 C 86 % 1024,4 hPa 0,0 l/m 2,3 km/h (1 Bft) W-NW 294 0 min 0,0 UV-I 0 W/m 6,6 C 8,8 C 6,4 km/h (2 Bft)
14.10.2021 00:20 8,8 C 7,8 C 11,7 C 86 % 1024,4 hPa 0,0 l/m 2,6 km/h (1 Bft) N-NW 333 0 min 0,0 UV-I 0 W/m 6,6 C 8,8 C 4,8 km/h (1 Bft)
14.10.2021 00:22 8,8 C 7,8 C 11,7 C 86 % 1024,4 hPa 0,0 l/m 1,5 km/h (1 Bft) NW 308 0 min 0,0 UV-I 0 W/m 6,6 C 8,8 C 4,8 km/h (1 Bft)
14.10.2021 00:24 8,8 C 7,8 C 11,7 C 86 % 1024,4 hPa 0,0 l/m 3,8 km/h (1 Bft) N-NW 343 0 min 0,0 UV-I 0 W/m 6,6 C 8,8 C 6,4 km/h (2 Bft)
14.10.2021 00:26 8,8 C 7,8 C 11,7 C 86 % 1024,3 hPa 0,0 l/m 3,1 km/h (1 Bft) NW 319 0 min 0,0 UV-I 0 W/m 6,6 C 8,8 C 6,4 km/h (2 Bft)
14.10.2021 00:28 8,8 C 7,8 C 11,7 C 86 % 1024,3 hPa 0,0 l/m 4,6 km/h (1 Bft) NW 324 0 min 0,0 UV-I 0 W/m 6,6 C 8,5 C 8,0 km/h (2 Bft)
14.10.2021 00:30 8,8 C 7,8 C 11,7 C 86 % 1024,4 hPa 0,0 l/m 3,9 km/h (1 Bft) N-NW 333 0 min 0,0 UV-I 0 W/m 6,6 C 8,8 C 6,4 km/h (2 Bft)
14.10.2021 00:32 8,8 C 7,8 C 11,7 C 86 % 1024,4 hPa 0,0 l/m 2,3 km/h (1 Bft) NW 325 0 min 0,0 UV-I 0 W/m 6,6 C 8,8 C 6,4 km/h (2 Bft)
14.10.2021 00:34 8,8 C 7,8 C 11,7 C 86 % 1024,4 hPa 0,0 l/m 1,3 km/h (1 Bft) N-NW 334 0 min 0,0 UV-I 0 W/m 6,6 C 8,8 C 4,8 km/h (1 Bft)
14.10.2021 00:36 8,8 C 7,8 C 11,7 C 86 % 1024,4 hPa 0,0 l/m 0,7 km/h (0 Bft) NW 323 0 min 0,0 UV-I 0 W/m 6,6 C 8,8 C 3,2 km/h (1 Bft)
14.10.2021 00:38 8,8 C 7,8 C 11,7 C 86 % 1024,4 hPa 0,0 l/m 3,3 km/h (1 Bft) N-NW 329 0 min 0,0 UV-I 0 W/m 6,6 C 8,8 C 6,4 km/h (2 Bft)
14.10.2021 00:40 8,8 C 7,8 C 11,7 C 86 % 1024,4 hPa 0,0 l/m 0,0 km/h (0 Bft) N-NW 329 0 min 0,0 UV-I 0 W/m 6,6 C 8,8 C 1,6 km/h (1 Bft)
14.10.2021 00:42 8,8 C 7,8 C 11,7 C 86 % 1024,4 hPa 0,0 l/m 1,1 km/h (1 Bft) NW 312 0 min 0,0 UV-I 0 W/m 6,6 C 8,8 C 4,8 km/h (1 Bft)
14.10.2021 00:44 8,8 C 7,8 C 11,7 C 86 % 1024,3 hPa 0,0 l/m 0,2 km/h (0 Bft) NW 312 0 min 0,0 UV-I 0 W/m 6,6 C 8,8 C 1,6 km/h (1 Bft)
14.10.2021 00:46 8,7 C 7,8 C 11,7 C 86 % 1024,3 hPa 0,0 l/m 0,9 km/h (0 Bft) NW 312 0 min 0,0 UV-I 0 W/m 6,5 C 8,7 C 3,2 km/h (1 Bft)
14.10.2021 00:48 8,7 C 7,8 C 11,7 C 86 % 1024,4 hPa 0,0 l/m 2,1 km/h (1 Bft) W-NW 294 0 min 0,0 UV-I 0 W/m 6,5 C 8,7 C 6,4 km/h (2 Bft)
14.10.2021 00:50 8,7 C 7,8 C 11,7 C 86 % 1024,3 hPa 0,0 l/m 1,9 km/h (1 Bft) W-NW 294 0 min 0,0 UV-I 0 W/m 6,5 C 8,7 C 6,4 km/h (2 Bft)
14.10.2021 00:52 8,7 C 7,8 C 11,7 C 86 % 1024,3 hPa 0,0 l/m 2,0 km/h (1 Bft) NW 308 0 min 0,0 UV-I 0 W/m 6,5 C 8,7 C 4,8 km/h (1 Bft)
14.10.2021 00:54 8,7 C 7,8 C 11,7 C 86 % 1024,3 hPa 0,0 l/m 2,6 km/h (1 Bft) W-NW 285 0 min 0,0 UV-I 0 W/m 6,5 C 8,7 C 6,4 km/h (2 Bft)
14.10.2021 00:56 8,7 C 7,8 C 11,7 C 86 % 1024,3 hPa 0,0 l/m 1,9 km/h (1 Bft) NW 306 0 min 0,0 UV-I 0 W/m 6,5 C 8,7 C 6,4 km/h (2 Bft)
14.10.2021 00:58 8,7 C 7,8 C 11,7 C 86 % 1024,3 hPa 0,0 l/m 2,8 km/h (1 Bft) NW 310 0 min 0,0 UV-I 0 W/m 6,5 C 8,7 C 6,4 km/h (2 Bft)
14.10.2021 01:00 8,8 C 7,8 C 11,7 C 86 % 1024,4 hPa 0,0 l/m 4,0 km/h (1 Bft) W-NW 293 0 min 0,0 UV-I 0 W/m 6,6 C 8,8 C 6,4 km/h (2 Bft)
14.10.2021 01:02 8,8 C 7,8 C 11,7 C 86 % 1024,3 hPa 0,0 l/m 2,3 km/h (1 Bft) W-NW 299 0 min 0,0 UV-I 0 W/m 6,6 C 8,8 C 4,8 km/h (1 Bft)
14.10.2021 01:04 8,7 C 7,8 C 11,7 C 86 % 1024,3 hPa 0,0 l/m 3,4 km/h (1 Bft) W-NW 289 0 min 0,0 UV-I 0 W/m 6,5 C 8,7 C 6,4 km/h (2 Bft)
14.10.2021 01:06 8,8 C 7,8 C 11,7 C 86 % 1024,3 hPa 0,0 l/m 3,2 km/h (1 Bft) W-NW 294 0 min 0,0 UV-I 0 W/m 6,6 C 8,8 C 6,4 km/h (2 Bft)
14.10.2021 01:08 8,8 C 7,8 C 11,7 C 86 % 1024,4 hPa 0,0 l/m 4,3 km/h (1 Bft) W-NW 296 0 min 0,0 UV-I 0 W/m 6,6 C 8,8 C 6,4 km/h (2 Bft)
14.10.2021 01:10 8,8 C 7,8 C 11,7 C 86 % 1024,3 hPa 0,0 l/m 2,8 km/h (1 Bft) W-NW 296 0 min 0,0 UV-I 0 W/m 6,6 C 8,8 C 4,8 km/h (1 Bft)
14.10.2021 01:12 8,7 C 7,8 C 11,7 C 86 % 1024,4 hPa 0,0 l/m 2,0 km/h (1 Bft) NW 310 0 min 0,0 UV-I 0 W/m 6,5 C 8,7 C 4,8 km/h (1 Bft)
14.10.2021 01:14 8,7 C 7,8 C 11,7 C 86 % 1024,3 hPa 0,0 l/m 3,2 km/h (1 Bft) NW 305 0 min 0,0 UV-I 0 W/m 6,5 C 8,7 C 6,4 km/h (2 Bft)
14.10.2021 01:16 8,8 C 7,8 C 11,7 C 86 % 1024,4 hPa 0,0 l/m 2,1 km/h (1 Bft) W-NW 298 0 min 0,0 UV-I 0 W/m 6,6 C 8,8 C 4,8 km/h (1 Bft)
14.10.2021 01:18 8,7 C 7,8 C 11,7 C 86 % 1024,4 hPa 0,0 l/m 4,7 km/h (1 Bft) W-NW 296 0 min 0,0 UV-I 0 W/m 6,5 C 8,4 C 6,4 km/h (2 Bft)
14.10.2021 01:20 8,7 C 7,8 C 11,7 C 87 % 1024,4 hPa 0,0 l/m 2,0 km/h (1 Bft) W-NW 298 0 min 0,0 UV-I 0 W/m 6,7 C 8,7 C 4,8 km/h (1 Bft)
14.10.2021 01:22 8,7 C 7,8 C 11,7 C 87 % 1024,4 hPa 0,0 l/m 2,8 km/h (1 Bft) W 281 0 min 0,0 UV-I 0 W/m 6,7 C 8,7 C 8,0 km/h (2 Bft)
14.10.2021 01:24 8,7 C 7,8 C 11,7 C 87 % 1024,3 hPa 0,0 l/m 2,3 km/h (1 Bft) W-NW 290 0 min 0,0 UV-I 0 W/m 6,7 C 8,7 C 4,8 km/h (1 Bft)
14.10.2021 01:26 8,7 C 7,8 C 11,7 C 87 % 1024,3 hPa 0,0 l/m 2,8 km/h (1 Bft) W-NW 289 0 min 0,0 UV-I 0 W/m 6,7 C 8,7 C 4,8 km/h (1 Bft)
14.10.2021 01:28 8,7 C 7,8 C 11,7 C 87 % 1024,3 hPa 0,0 l/m 2,0 km/h (1 Bft) W-NW 289 0 min 0,0 UV-I 0 W/m 6,7 C 8,7 C 4,8 km/h (1 Bft)
14.10.2021 01:30 8,7 C 7,8 C 11,7 C 87 % 1024,3 hPa 0,0 l/m 1,8 km/h (1 Bft) W-NW 289 0 min 0,0 UV-I 0 W/m 6,7 C 8,7 C 3,2 km/h (1 Bft)
14.10.2021 01:32 8,7 C 7,8 C 11,7 C 87 % 1024,4 hPa 0,0 l/m 0,5 km/h (0 Bft) W 275 0 min 0,0 UV-I 0 W/m 6,7 C 8,7 C 4,8 km/h (1 Bft)
14.10.2021 01:34 8,7 C 7,8 C 11,7 C 87 % 1024,4 hPa 0,0 l/m 2,1 km/h (1 Bft) W 271 0 min 0,0 UV-I 0 W/m 6,7 C 8,7 C 6,4 km/h (2 Bft)
14.10.2021 01:36 8,7 C 7,8 C 11,7 C 87 % 1024,4 hPa 0,0 l/m 2,5 km/h (1 Bft) W-NW 288 0 min 0,0 UV-I 0 W/m 6,7 C 8,7 C 4,8 km/h (1 Bft)
14.10.2021 01:38 8,7 C 7,8 C 11,7 C 87 % 1024,4 hPa 0,0 l/m 3,7 km/h (1 Bft) W 270 0 min 0,0 UV-I 0 W/m 6,7 C 8,7 C 9,7 km/h (2 Bft)
14.10.2021 01:40 8,7 C 7,8 C 11,7 C 87 % 1024,3 hPa 0,0 l/m 3,7 km/h (1 Bft) NW 306 0 min 0,0 UV-I 0 W/m 6,7 C 8,7 C 9,7 km/h (2 Bft)
14.10.2021 01:42 8,7 C 7,8 C 11,7 C 87 % 1024,3 hPa 0,0 l/m 4,3 km/h (1 Bft) W-NW 289 0 min 0,0 UV-I 0 W/m 6,7 C 8,7 C 8,0 km/h (2 Bft)
14.10.2021 01:44 8,7 C 7,8 C 11,7 C 87 % 1024,2 hPa 0,0 l/m 4,0 km/h (1 Bft) W-NW 295 0 min 0,0 UV-I 0 W/m 6,7 C 8,7 C 8,0 km/h (2 Bft)
14.10.2021 01:46 8,7 C 7,8 C 11,7 C 87 % 1024,2 hPa 0,0 l/m 2,4 km/h (1 Bft) W-NW 291 0 min 0,0 UV-I 0 W/m 6,7 C 8,7 C 6,4 km/h (2 Bft)
14.10.2021 01:48 8,7 C 7,8 C 11,7 C 87 % 1024,2 hPa 0,0 l/m 4,2 km/h (1 Bft) W-NW 293 0 min 0,0 UV-I 0 W/m 6,7 C 8,7 C 8,0 km/h (2 Bft)
14.10.2021 01:50 8,7 C 7,8 C 11,7 C 87 % 1024,2 hPa 0,0 l/m 3,1 km/h (1 Bft) W-NW 288 0 min 0,0 UV-I 0 W/m 6,7 C 8,7 C 6,4 km/h (2 Bft)
14.10.2021 01:52 8,7 C 7,8 C 11,7 C 87 % 1024,2 hPa 0,0 l/m 3,9 km/h (1 Bft) W 272 0 min 0,0 UV-I 0 W/m 6,7 C 8,7 C 6,4 km/h (2 Bft)
14.10.2021 01:54 8,7 C 7,8 C 11,7 C 87 % 1024,2 hPa 0,0 l/m 3,4 km/h (1 Bft) W 278 0 min 0,0 UV-I 0 W/m 6,7 C 8,7 C 8,0 km/h (2 Bft)
14.10.2021 01:56 8,7 C 7,8 C 11,7 C 87 % 1024,2 hPa 0,0 l/m 3,4 km/h (1 Bft) W 275 0 min 0,0 UV-I 0 W/m 6,7 C 8,7 C 6,4 km/h (2 Bft)
14.10.2021 01:58 8,7 C 7,8 C 11,7 C 87 % 1024,2 hPa 0,0 l/m 4,1 km/h (1 Bft) W-NW 283 0 min 0,0 UV-I 0 W/m 6,7 C 8,7 C 8,0 km/h (2 Bft)
14.10.2021 02:00 8,7 C 7,8 C 11,7 C 87 % 1024,2 hPa 0,0 l/m 3,3 km/h (1 Bft) W-NW 296 0 min 0,0 UV-I 0 W/m 6,7 C 8,7 C 6,4 km/h (2 Bft)
14.10.2021 02:02 8,7 C 7,8 C 11,7 C 87 % 1024,2 hPa 0,0 l/m 1,8 km/h (1 Bft) W 275 0 min 0,0 UV-I 0 W/m 6,7 C 8,7 C 6,4 km/h (2 Bft)
14.10.2021 02:04 8,7 C 7,8 C 11,7 C 87 % 1024,2 hPa 0,0 l/m 4,9 km/h (1 Bft) W-NW 289 0 min 0,0 UV-I 0 W/m 6,7 C 8,3 C 9,7 km/h (2 Bft)
14.10.2021 02:06 8,7 C 7,8 C 11,7 C 87 % 1024,3 hPa 0,0 l/m 3,7 km/h (1 Bft) W-NW 286 0 min 0,0 UV-I 0 W/m 6,7 C 8,7 C 8,0 km/h (2 Bft)
14.10.2021 02:08 8,7 C 7,8 C 11,7 C 87 % 1024,3 hPa 0,0 l/m 5,8 km/h (2 Bft) W-NW 292 0 min 0,0 UV-I 0 W/m 6,7 C 8,0 C 9,7 km/h (2 Bft)
14.10.2021 02:10 8,7 C 7,8 C 11,7 C 87 % 1024,3 hPa 0,0 l/m 4,2 km/h (1 Bft) W-NW 303 0 min 0,0 UV-I 0 W/m 6,7 C 8,7 C 8,0 km/h (2 Bft)
14.10.2021 02:12 8,8 C 7,8 C 11,7 C 87 % 1024,3 hPa 0,0 l/m 5,4 km/h (2 Bft) W-NW 294 0 min 0,0 UV-I 0 W/m 6,8 C 8,3 C 9,7 km/h (2 Bft)
14.10.2021 02:14 8,8 C 7,8 C 11,7 C 87 % 1024,3 hPa 0,0 l/m 4,5 km/h (1 Bft) NW 309 0 min 0,0 UV-I 0 W/m 6,8 C 8,8 C 8,0 km/h (2 Bft)
14.10.2021 02:16 8,8 C 7,8 C 11,7 C 87 % 1024,3 hPa 0,0 l/m 3,6 km/h (1 Bft) NW 311 0 min 0,0 UV-I 0 W/m 6,8 C 8,8 C 6,4 km/h (2 Bft)
14.10.2021 02:18 8,8 C 7,8 C 11,7 C 87 % 1024,3 hPa 0,0 l/m 5,2 km/h (1 Bft) W-NW 297 0 min 0,0 UV-I 0 W/m 6,8 C 8,3 C 8,0 km/h (2 Bft)
14.10.2021 02:20 8,8 C 7,8 C 11,7 C 87 % 1024,3 hPa 0,0 l/m 3,7 km/h (1 Bft) W 276 0 min 0,0 UV-I 0 W/m 6,8 C 8,8 C 6,4 km/h (2 Bft)
14.10.2021 02:22 8,8 C 7,8 C 11,7 C 87 % 1024,3 hPa 0,0 l/m 3,7 km/h (1 Bft) NW 322 0 min 0,0 UV-I 0 W/m 6,8 C 8,8 C 6,4 km/h (2 Bft)
14.10.2021 02:24 8,8 C 7,8 C 11,7 C 88 % 1024,2 hPa 0,0 l/m 5,4 km/h (2 Bft) N-NW 345 0 min 0,0 UV-I 0 W/m 6,9 C 8,3 C 11,3 km/h (2 Bft)
14.10.2021 02:26 8,8 C 7,8 C 11,7 C 87 % 1024,2 hPa 0,0 l/m 4,7 km/h (1 Bft) N-NW 329 0 min 0,0 UV-I 0 W/m 6,8 C 8,5 C 11,3 km/h (2 Bft)
14.10.2021 02:28 8,8 C 7,8 C 11,7 C 87 % 1024,2 hPa 0,0 l/m 5,2 km/h (1 Bft) W-NW 294 0 min 0,0 UV-I 0 W/m 6,8 C 8,3 C 8,0 km/h (2 Bft)
14.10.2021 02:30 8,9 C 7,8 C 11,7 C 88 % 1024,3 hPa 0,0 l/m 2,2 km/h (1 Bft) NW 314 0 min 0,0 UV-I 0 W/m 7,0 C 8,9 C 4,8 km/h (1 Bft)
14.10.2021 02:32 8,9 C 8,3 C 11,7 C 88 % 1024,3 hPa 0,0 l/m 4,9 km/h (1 Bft) W-NW 301 0 min 0,0 UV-I 0 W/m 7,0 C 8,5 C 11,3 km/h (2 Bft)
14.10.2021 02:34 8,9 C 8,3 C 11,7 C 88 % 1024,3 hPa 0,0 l/m 6,1 km/h (2 Bft) W-NW 295 0 min 0,0 UV-I 0 W/m 7,0 C 8,2 C 11,3 km/h (2 Bft)
14.10.2021 02:36 8,9 C 8,3 C 11,7 C 88 % 1024,2 hPa 0,0 l/m 6,1 km/h (2 Bft) NW 305 0 min 0,0 UV-I 0 W/m 7,0 C 8,2 C 9,7 km/h (2 Bft)
14.10.2021 02:38 8,9 C 8,3 C 11,7 C 88 % 1024,1 hPa 0,0 l/m 5,7 km/h (2 Bft) NW 307 0 min 0,0 UV-I 0 W/m 7,0 C 8,3 C 9,7 km/h (2 Bft)
14.10.2021 02:40 9,0 C 8,3 C 11,7 C 88 % 1024,1 hPa 0,0 l/m 4,0 km/h (1 Bft) W-NW 301 0 min 0,0 UV-I 0 W/m 7,1 C 9,0 C 6,4 km/h (2 Bft)
14.10.2021 02:42 9,0 C 8,3 C 11,7 C 88 % 1024,1 hPa 0,0 l/m 6,3 km/h (2 Bft) NW 321 0 min 0,0 UV-I 0 W/m 7,1 C 8,2 C 9,7 km/h (2 Bft)
14.10.2021 02:44 9,0 C 8,3 C 11,7 C 88 % 1024,1 hPa 0,0 l/m 5,5 km/h (2 Bft) W-NW 294 0 min 0,0 UV-I 0 W/m 7,1 C 8,5 C 8,0 km/h (2 Bft)
14.10.2021 02:46 9,0 C 8,3 C 11,7 C 88 % 1024,1 hPa 0,0 l/m 4,4 km/h (1 Bft) W-NW 294 0 min 0,0 UV-I 0 W/m 7,1 C 9,0 C 8,0 km/h (2 Bft)
14.10.2021 02:48 9,1 C 8,3 C 11,7 C 88 % 1024,1 hPa 0,0 l/m 5,3 km/h (1 Bft) W-NW 296 0 min 0,0 UV-I 0 W/m 7,2 C 8,6 C 8,0 km/h (2 Bft)
14.10.2021 02:50 9,1 C 8,3 C 11,7 C 88 % 1024,0 hPa 0,2 l/m 7,1 km/h (2 Bft) NW 309 0 min 0,0 UV-I 0 W/m 7,2 C 8,2 C 11,3 km/h (2 Bft)
14.10.2021 02:52 9,1 C 8,3 C 11,7 C 88 % 1024,0 hPa 0,0 l/m 3,5 km/h (1 Bft) NW 310 0 min 0,0 UV-I 0 W/m 7,2 C 9,1 C 6,4 km/h (2 Bft)
14.10.2021 02:54 9,1 C 8,3 C 11,7 C 88 % 1024,0 hPa 0,0 l/m 3,6 km/h (1 Bft) NW 306 0 min 0,0 UV-I 0 W/m 7,2 C 9,1 C 8,0 km/h (2 Bft)
14.10.2021 02:56 9,1 C 8,3 C 11,7 C 88 % 1024,0 hPa 0,0 l/m 1,2 km/h (1 Bft) W-NW 298 0 min 0,0 UV-I 0 W/m 7,2 C 9,1 C 4,8 km/h (1 Bft)
14.10.2021 02:58 9,1 C 8,3 C 11,7 C 88 % 1024,0 hPa 0,0 l/m 4,9 km/h (1 Bft) W-NW 298 0 min 0,0 UV-I 0 W/m 7,2 C 8,8 C 8,0 km/h (2 Bft)
14.10.2021 03:00 9,1 C 8,3 C 11,7 C 89 % 1024,0 hPa 0,0 l/m 3,1 km/h (1 Bft) W-NW 302 0 min 0,0 UV-I 0 W/m 7,4 C 9,1 C 6,4 km/h (2 Bft)
14.10.2021 03:02 9,1 C 8,3 C 11,7 C 88 % 1024,0 hPa 0,0 l/m 5,0 km/h (1 Bft) W-NW 294 0 min 0,0 UV-I 0 W/m 7,2 C 8,7 C 8,0 km/h (2 Bft)
14.10.2021 03:04 9,1 C 8,3 C 11,7 C 88 % 1024,0 hPa 0,0 l/m 3,9 km/h (1 Bft) W-NW 283 0 min 0,0 UV-I 0 W/m 7,2 C 9,1 C 9,7 km/h (2 Bft)
14.10.2021 03:06 9,1 C 8,3 C 11,7 C 89 % 1023,9 hPa 0,0 l/m 5,4 km/h (2 Bft) W-NW 287 0 min 0,0 UV-I 0 W/m 7,4 C 8,6 C 8,0 km/h (2 Bft)
14.10.2021 03:08 9,1 C 8,3 C 11,7 C 89 % 1024,0 hPa 0,0 l/m 3,4 km/h (1 Bft) W-NW 283 0 min 0,0 UV-I 0 W/m 7,4 C 9,1 C 6,4 km/h (2 Bft)
14.10.2021 03:10 9,1 C 8,3 C 11,7 C 89 % 1024,0 hPa 0,0 l/m 3,0 km/h (1 Bft) W-NW 283 0 min 0,0 UV-I 0 W/m 7,4 C 9,1 C 4,8 km/h (1 Bft)
14.10.2021 03:12 9,1 C 8,3 C 11,7 C 89 % 1023,9 hPa 0,0 l/m 3,7 km/h (1 Bft) W 279 0 min 0,0 UV-I 0 W/m 7,4 C 9,1 C 8,0 km/h (2 Bft)
14.10.2021 03:14 9,0 C 8,3 C 11,7 C 89 % 1023,9 hPa 0,2 l/m 4,8 km/h (1 Bft) W-NW 287 0 min 0,0 UV-I 0 W/m 7,3 C 8,7 C 8,0 km/h (2 Bft)
14.10.2021 03:16 9,1 C 8,3 C 11,7 C 89 % 1023,9 hPa 0,0 l/m 3,9 km/h (1 Bft) W-NW 285 0 min 0,0 UV-I 0 W/m 7,4 C 9,1 C 6,4 km/h (2 Bft)
14.10.2021 03:18 9,0 C 8,3 C 11,7 C 89 % 1023,9 hPa 0,2 l/m 2,1 km/h (1 Bft) W-NW 286 0 min 0,0 UV-I 0 W/m 7,3 C 9,0 C 4,8 km/h (1 Bft)
14.10.2021 03:20 9,0 C 8,3 C 11,7 C 89 % 1023,9 hPa 0,0 l/m 3,0 km/h (1 Bft) W-NW 285 0 min 0,0 UV-I 0 W/m 7,3 C 9,0 C 6,4 km/h (2 Bft)
14.10.2021 03:22 9,0 C 8,3 C 11,7 C 89 % 1023,9 hPa 0,0 l/m 1,1 km/h (1 Bft) W 277 0 min 0,0 UV-I 0 W/m 7,3 C 9,0 C 3,2 km/h (1 Bft)
14.10.2021 03:24 9,0 C 8,3 C 11,7 C 89 % 1023,8 hPa 0,0 l/m 1,6 km/h (1 Bft) W-NW 291 0 min 0,0 UV-I 0 W/m 7,3 C 9,0 C 4,8 km/h (1 Bft)
14.10.2021 03:26 9,0 C 8,3 C 11,7 C 89 % 1023,8 hPa 0,2 l/m 3,7 km/h (1 Bft) W-NW 292 0 min 0,0 UV-I 0 W/m 7,3 C 9,0 C 8,0 km/h (2 Bft)
14.10.2021 03:28 9,0 C 8,3 C 11,7 C 89 % 1023,8 hPa 0,0 l/m 3,2 km/h (1 Bft) W-NW 298 0 min 0,0 UV-I 0 W/m 7,3 C 9,0 C 6,4 km/h (2 Bft)
14.10.2021 03:30 9,0 C 8,3 C 11,7 C 89 % 1023,8 hPa 0,0 l/m 2,8 km/h (1 Bft) W 266 0 min 0,0 UV-I 0 W/m 7,3 C 9,0 C 4,8 km/h (1 Bft)
14.10.2021 03:32 9,0 C 8,3 C 11,7 C 89 % 1023,8 hPa 0,0 l/m 3,7 km/h (1 Bft) W-NW 285 0 min 0,0 UV-I 0 W/m 7,3 C 9,0 C 6,4 km/h (2 Bft)
14.10.2021 03:34 8,9 C 8,3 C 11,7 C 89 % 1023,8 hPa 0,2 l/m 5,0 km/h (1 Bft) W-NW 284 0 min 0,0 UV-I 0 W/m 7,2 C 8,5 C 6,4 km/h (2 Bft)
14.10.2021 03:36 8,9 C 8,3 C 11,7 C 89 % 1023,8 hPa 0,0 l/m 5,1 km/h (1 Bft) W-NW 292 0 min 0,0 UV-I 0 W/m 7,2 C 8,5 C 8,0 km/h (2 Bft)
14.10.2021 03:38 9,0 C 8,3 C 11,7 C 90 % 1023,8 hPa 0,0 l/m 4,1 km/h (1 Bft) W 269 0 min 0,0 UV-I 0 W/m 7,4 C 9,0 C 6,4 km/h (2 Bft)
14.10.2021 03:40 9,0 C 8,3 C 11,7 C 90 % 1023,7 hPa 0,0 l/m 3,9 km/h (1 Bft) W 269 0 min 0,0 UV-I 0 W/m 7,4 C 9,0 C 8,0 km/h (2 Bft)
14.10.2021 03:42 9,0 C 8,3 C 11,7 C 89 % 1023,8 hPa 0,0 l/m 5,0 km/h (1 Bft) W-NW 287 0 min 0,0 UV-I 0 W/m 7,3 C 8,6 C 8,0 km/h (2 Bft)
14.10.2021 03:44 8,9 C 8,3 C 11,7 C 89 % 1023,8 hPa 0,2 l/m 7,0 km/h (2 Bft) W-NW 292 0 min 0,0 UV-I 0 W/m 7,2 C 7,9 C 9,7 km/h (2 Bft)
14.10.2021 03:46 8,9 C 8,3 C 11,7 C 89 % 1023,8 hPa 0,0 l/m 6,0 km/h (2 Bft) NW 306 0 min 0,0 UV-I 0 W/m 7,2 C 8,2 C 11,3 km/h (2 Bft)
14.10.2021 03:48 9,0 C 8,3 C 11,7 C 90 % 1023,8 hPa 0,0 l/m 4,9 km/h (1 Bft) W 275 0 min 0,0 UV-I 0 W/m 7,4 C 8,7 C 12,9 km/h (3 Bft)
14.10.2021 03:50 9,0 C 8,3 C 11,7 C 90 % 1023,8 hPa 0,0 l/m 4,4 km/h (1 Bft) W-NW 299 0 min 0,0 UV-I 0 W/m 7,4 C 9,0 C 6,4 km/h (2 Bft)
14.10.2021 03:52 8,9 C 8,3 C 11,7 C 90 % 1023,8 hPa 0,2 l/m 3,4 km/h (1 Bft) W-NW 297 0 min 0,0 UV-I 0 W/m 7,4 C 8,9 C 6,4 km/h (2 Bft)
14.10.2021 03:54 8,9 C 8,3 C 11,7 C 90 % 1023,8 hPa 0,0 l/m 5,9 km/h (2 Bft) N 4 0 min 0,0 UV-I 0 W/m 7,4 C 8,2 C 9,7 km/h (2 Bft)
14.10.2021 03:56 9,0 C 8,3 C 11,7 C 90 % 1023,7 hPa 0,0 l/m 5,6 km/h (2 Bft) W 268 0 min 0,0 UV-I 0 W/m 7,4 C 8,4 C 8,0 km/h (2 Bft)
14.10.2021 03:58 9,0 C 8,3 C 11,7 C 90 % 1023,7 hPa 0,0 l/m 5,8 km/h (2 Bft) N-NW 335 0 min 0,0 UV-I 0 W/m 7,4 C 8,4 C 11,3 km/h (2 Bft)
14.10.2021 04:00 8,9 C 8,3 C 11,7 C 90 % 1023,7 hPa 0,0 l/m 7,7 km/h (2 Bft) W 278 0 min 0,0 UV-I 0 W/m 7,4 C 7,8 C 11,3 km/h (2 Bft)
14.10.2021 04:02 8,9 C 8,3 C 11,7 C 90 % 1023,7 hPa 0,2 l/m 5,4 km/h (2 Bft) NW 324 0 min 0,0 UV-I 0 W/m 7,4 C 8,4 C 9,7 km/h (2 Bft)
14.10.2021 04:04 8,9 C 8,3 C 11,7 C 90 % 1023,7 hPa 0,0 l/m 5,0 km/h (1 Bft) NW 310 0 min 0,0 UV-I 0 W/m 7,4 C 8,5 C 9,7 km/h (2 Bft)
14.10.2021 04:06 8,9 C 8,3 C 11,7 C 90 % 1023,6 hPa 0,0 l/m 6,8 km/h (2 Bft) NW 316 0 min 0,0 UV-I 0 W/m 7,4 C 8,0 C 11,3 km/h (2 Bft)
14.10.2021 04:08 8,9 C 8,3 C 11,7 C 90 % 1023,6 hPa 0,0 l/m 6,9 km/h (2 Bft) W-NW 292 0 min 0,0 UV-I 0 W/m 7,4 C 8,0 C 16,1 km/h (3 Bft)
14.10.2021 04:10 8,9 C 8,3 C 11,7 C 90 % 1023,6 hPa 0,2 l/m 5,8 km/h (2 Bft) W-NW 302 0 min 0,0 UV-I 0 W/m 7,4 C 8,3 C 11,3 km/h (2 Bft)
14.10.2021 04:12 8,9 C 8,3 C 11,7 C 90 % 1023,6 hPa 0,0 l/m 5,6 km/h (2 Bft) W 273 0 min 0,0 UV-I 0 W/m 7,4 C 8,3 C 8,0 km/h (2 Bft)
14.10.2021 04:14 8,9 C 8,3 C 11,7 C 90 % 1023,6 hPa 0,0 l/m 5,2 km/h (1 Bft) NW 310 0 min 0,0 UV-I 0 W/m 7,4 C 8,4 C 9,7 km/h (2 Bft)
14.10.2021 04:16 8,9 C 8,3 C 11,7 C 90 % 1023,6 hPa 0,0 l/m 4,3 km/h (1 Bft) W-NW 289 0 min 0,0 UV-I 0 W/m 7,4 C 8,9 C 8,0 km/h (2 Bft)
14.10.2021 04:18 8,9 C 8,3 C 11,7 C 90 % 1023,5 hPa 0,0 l/m 5,1 km/h (1 Bft) W-NW 285 0 min 0,0 UV-I 0 W/m 7,4 C 8,5 C 8,0 km/h (2 Bft)
14.10.2021 04:20 8,9 C 8,3 C 11,7 C 90 % 1023,5 hPa 0,0 l/m 3,7 km/h (1 Bft) W-NW 286 0 min 0,0 UV-I 0 W/m 7,4 C 8,9 C 6,4 km/h (2 Bft)
14.10.2021 04:22 8,9 C 8,3 C 11,7 C 90 % 1023,4 hPa 0,0 l/m 3,1 km/h (1 Bft) W 276 0 min 0,0 UV-I 0 W/m 7,4 C 8,9 C 6,4 km/h (2 Bft)
14.10.2021 04:24 8,9 C 8,3 C 11,7 C 90 % 1023,4 hPa 0,0 l/m 3,1 km/h (1 Bft) W-NW 288 0 min 0,0 UV-I 0 W/m 7,4 C 8,9 C 6,4 km/h (2 Bft)
14.10.2021 04:26 8,9 C 8,3 C 11,7 C 90 % 1023,4 hPa 0,2 l/m 7,9 km/h (2 Bft) W-NW 287 0 min 0,0 UV-I 0 W/m 7,4 C 7,7 C 16,1 km/h (3 Bft)
14.10.2021 04:28 8,8 C 8,3 C 11,7 C 90 % 1023,4 hPa 0,0 l/m 6,7 km/h (2 Bft) W 270 0 min 0,0 UV-I 0 W/m 7,3 C 7,9 C 14,5 km/h (3 Bft)
14.10.2021 04:30 8,8 C 8,3 C 11,7 C 90 % 1023,4 hPa 0,0 l/m 8,1 km/h (2 Bft) W 279 0 min 0,0 UV-I 0 W/m 7,3 C 7,6 C 11,3 km/h (2 Bft)
14.10.2021 04:32 8,8 C 8,3 C 11,7 C 90 % 1023,4 hPa 0,0 l/m 5,4 km/h (2 Bft) W-NW 290 0 min 0,0 UV-I 0 W/m 7,3 C 8,3 C 9,7 km/h (2 Bft)
14.10.2021 04:34 8,8 C 8,3 C 11,7 C 90 % 1023,4 hPa 0,0 l/m 6,0 km/h (2 Bft) W 276 0 min 0,0 UV-I 0 W/m 7,3 C 8,1 C 9,7 km/h (2 Bft)
14.10.2021 04:36 8,8 C 8,3 C 11,7 C 90 % 1023,3 hPa 0,0 l/m 6,0 km/h (2 Bft) W 269 0 min 0,0 UV-I 0 W/m 7,3 C 8,1 C 9,7 km/h (2 Bft)
14.10.2021 04:38 8,8 C 8,3 C 11,7 C 90 % 1023,3 hPa 0,0 l/m 5,4 km/h (2 Bft) NW 313 0 min 0,0 UV-I 0 W/m 7,3 C 8,3 C 8,0 km/h (2 Bft)
14.10.2021 04:40 8,7 C 8,3 C 11,7 C 90 % 1023,3 hPa 0,0 l/m 3,8 km/h (1 Bft) W 266 0 min 0,0 UV-I 0 W/m 7,2 C 8,7 C 6,4 km/h (2 Bft)
14.10.2021 04:42 8,7 C 8,3 C 11,7 C 90 % 1023,2 hPa 0,0 l/m 3,6 km/h (1 Bft) W 279 0 min 0,0 UV-I 0 W/m 7,2 C 8,7 C 6,4 km/h (2 Bft)
14.10.2021 04:44 8,7 C 8,3 C 11,7 C 90 % 1023,2 hPa 0,0 l/m 5,4 km/h (2 Bft) SW 228 0 min 0,0 UV-I 0 W/m 7,2 C 8,2 C 8,0 km/h (2 Bft)
14.10.2021 04:46 8,7 C 8,3 C 11,7 C 90 % 1023,1 hPa 0,0 l/m 3,5 km/h (1 Bft) W 269 0 min 0,0 UV-I 0 W/m 7,2 C 8,7 C 8,0 km/h (2 Bft)
14.10.2021 04:48 8,7 C 8,3 C 11,7 C 90 % 1023,1 hPa 0,0 l/m 3,9 km/h (1 Bft) W-NW 292 0 min 0,0 UV-I 0 W/m 7,2 C 8,7 C 8,0 km/h (2 Bft)
14.10.2021 04:50 8,7 C 8,3 C 11,7 C 90 % 1023,2 hPa 0,0 l/m 4,9 km/h (1 Bft) W 263 0 min 0,0 UV-I 0 W/m 7,2 C 8,3 C 8,0 km/h (2 Bft)
14.10.2021 04:52 8,7 C 8,3 C 11,7 C 90 % 1023,2 hPa 0,0 l/m 6,6 km/h (2 Bft) W 271 0 min 0,0 UV-I 0 W/m 7,2 C 7,8 C 11,3 km/h (2 Bft)
14.10.2021 04:54 8,7 C 8,3 C 11,7 C 90 % 1023,1 hPa 0,0 l/m 5,4 km/h (2 Bft) W 269 0 min 0,0 UV-I 0 W/m 7,2 C 8,2 C 9,7 km/h (2 Bft)
14.10.2021 04:56 8,7 C 8,3 C 11,7 C 90 % 1023,1 hPa 0,0 l/m 3,2 km/h (1 Bft) W-NW 302 0 min 0,0 UV-I 0 W/m 7,2 C 8,7 C 9,7 km/h (2 Bft)
14.10.2021 04:58 8,7 C 8,3 C 11,7 C 90 % 1023,2 hPa 0,0 l/m 5,3 km/h (1 Bft) W 273 0 min 0,0 UV-I 0 W/m 7,2 C 8,2 C 9,7 km/h (2 Bft)
14.10.2021 05:00 8,7 C 8,3 C 11,7 C 90 % 1023,1 hPa 0,0 l/m 5,2 km/h (1 Bft) W-NW 288 0 min 0,0 UV-I 0 W/m 7,2 C 8,2 C 9,7 km/h (2 Bft)
14.10.2021 05:02 8,7 C 8,3 C 11,7 C 90 % 1023,1 hPa 0,0 l/m 3,6 km/h (1 Bft) W 265 0 min 0,0 UV-I 0 W/m 7,2 C 8,7 C 8,0 km/h (2 Bft)
14.10.2021 05:04 8,7 C 8,3 C 11,7 C 90 % 1023,1 hPa 0,0 l/m 4,8 km/h (1 Bft) W 274 0 min 0,0 UV-I 0 W/m 7,2 C 8,3 C 8,0 km/h (2 Bft)
14.10.2021 05:06 8,7 C 8,3 C 11,7 C 90 % 1023,1 hPa 0,0 l/m 5,7 km/h (2 Bft) W 268 0 min 0,0 UV-I 0 W/m 7,2 C 8,1 C 11,3 km/h (2 Bft)
14.10.2021 05:08 8,7 C 8,3 C 11,7 C 90 % 1023,1 hPa 0,0 l/m 4,0 km/h (1 Bft) W 270 0 min 0,0 UV-I 0 W/m 7,2 C 8,7 C 11,3 km/h (2 Bft)
14.10.2021 05:10 8,7 C 8,3 C 11,7 C 90 % 1023,1 hPa 0,0 l/m 6,2 km/h (2 Bft) W 277 0 min 0,0 UV-I 0 W/m 7,2 C 7,9 C 9,7 km/h (2 Bft)
14.10.2021 05:12 8,7 C 8,3 C 11,7 C 90 % 1023,1 hPa 0,0 l/m 6,7 km/h (2 Bft) W-NW 287 0 min 0,0 UV-I 0 W/m 7,2 C 7,8 C 12,9 km/h (3 Bft)
14.10.2021 05:14 8,7 C 8,3 C 11,7 C 90 % 1023,0 hPa 0,0 l/m 2,9 km/h (1 Bft) W-SW 256 0 min 0,0 UV-I 0 W/m 7,2 C 8,7 C 6,4 km/h (2 Bft)
14.10.2021 05:16 8,7 C 8,3 C 11,7 C 90 % 1023,0 hPa 0,0 l/m 3,7 km/h (1 Bft) W-NW 282 0 min 0,0 UV-I 0 W/m 7,2 C 8,7 C 9,7 km/h (2 Bft)
14.10.2021 05:18 8,7 C 8,3 C 11,7 C 90 % 1023,0 hPa 0,0 l/m 4,1 km/h (1 Bft) W-SW 245 0 min 0,0 UV-I 0 W/m 7,2 C 8,7 C 9,7 km/h (2 Bft)
14.10.2021 05:20 8,7 C 8,3 C 11,7 C 90 % 1022,9 hPa 0,0 l/m 5,2 km/h (1 Bft) W 266 0 min 0,0 UV-I 0 W/m 7,2 C 8,2 C 9,7 km/h (2 Bft)
14.10.2021 05:22 8,7 C 8,3 C 11,7 C 90 % 1023,0 hPa 0,0 l/m 7,0 km/h (2 Bft) W-NW 291 0 min 0,0 UV-I 0 W/m 7,2 C 7,7 C 11,3 km/h (2 Bft)
14.10.2021 05:24 8,7 C 8,3 C 11,7 C 90 % 1022,9 hPa 0,0 l/m 4,2 km/h (1 Bft) W-NW 295 0 min 0,0 UV-I 0 W/m 7,2 C 8,7 C 6,4 km/h (2 Bft)
14.10.2021 05:26 8,7 C 8,3 C 11,7 C 90 % 1022,9 hPa 0,0 l/m 6,4 km/h (2 Bft) W-NW 287 0 min 0,0 UV-I 0 W/m 7,2 C 7,9 C 12,9 km/h (3 Bft)
14.10.2021 05:28 8,8 C 8,3 C 11,7 C 90 % 1023,0 hPa 0,0 l/m 6,8 km/h (2 Bft) W-NW 292 0 min 0,0 UV-I 0 W/m 7,3 C 7,9 C 11,3 km/h (2 Bft)
14.10.2021 05:30 8,8 C 8,3 C 11,7 C 91 % 1022,9 hPa 0,0 l/m 6,7 km/h (2 Bft) W 281 0 min 0,0 UV-I 0 W/m 7,4 C 7,9 C 11,3 km/h (2 Bft)
14.10.2021 05:32 8,8 C 8,3 C 11,7 C 90 % 1022,9 hPa 0,2 l/m 2,6 km/h (1 Bft) W 271 0 min 0,0 UV-I 0 W/m 7,3 C 8,8 C 4,8 km/h (1 Bft)
14.10.2021 05:34 8,8 C 8,3 C 11,7 C 91 % 1022,9 hPa 0,0 l/m 4,6 km/h (1 Bft) W 277 0 min 0,0 UV-I 0 W/m 7,4 C 8,5 C 8,0 km/h (2 Bft)
14.10.2021 05:36 8,8 C 8,3 C 11,7 C 91 % 1022,9 hPa 0,0 l/m 4,7 km/h (1 Bft) W 263 0 min 0,0 UV-I 0 W/m 7,4 C 8,5 C 8,0 km/h (2 Bft)
14.10.2021 05:38 8,8 C 8,3 C 11,7 C 91 % 1022,9 hPa 0,0 l/m 3,6 km/h (1 Bft) W-SW 245 0 min 0,0 UV-I 0 W/m 7,4 C 8,8 C 8,0 km/h (2 Bft)
14.10.2021 05:40 8,8 C 8,3 C 11,7 C 91 % 1022,9 hPa 0,0 l/m 5,6 km/h (2 Bft) W 274 0 min 0,0 UV-I 0 W/m 7,4 C 8,2 C 9,7 km/h (2 Bft)
14.10.2021 05:42 8,8 C 8,3 C 11,7 C 91 % 1022,8 hPa 0,0 l/m 3,7 km/h (1 Bft) W-SW 248 0 min 0,0 UV-I 0 W/m 7,4 C 8,8 C 8,0 km/h (2 Bft)
14.10.2021 05:44 8,8 C 8,3 C 11,7 C 91 % 1022,8 hPa 0,0 l/m 7,6 km/h (2 Bft) W-SW 252 0 min 0,0 UV-I 0 W/m 7,4 C 7,7 C 14,5 km/h (3 Bft)
14.10.2021 05:46 8,8 C 8,3 C 11,7 C 91 % 1022,8 hPa 0,0 l/m 6,2 km/h (2 Bft) W 267 0 min 0,0 UV-I 0 W/m 7,4 C 8,0 C 12,9 km/h (3 Bft)
14.10.2021 05:48 8,8 C 8,3 C 11,7 C 91 % 1022,8 hPa 0,0 l/m 7,0 km/h (2 Bft) W-NW 289 0 min 0,0 UV-I 0 W/m 7,4 C 7,8 C 9,7 km/h (2 Bft)
14.10.2021 05:50 8,8 C 8,3 C 11,7 C 91 % 1022,8 hPa 0,0 l/m 7,7 km/h (2 Bft) W 280 0 min 0,0 UV-I 0 W/m 7,4 C 7,7 C 11,3 km/h (2 Bft)
14.10.2021 05:52 8,8 C 8,3 C 11,7 C 91 % 1022,9 hPa 0,0 l/m 6,9 km/h (2 Bft) W-NW 300 0 min 0,0 UV-I 0 W/m 7,4 C 7,9 C 12,9 km/h (3 Bft)
14.10.2021 05:54 8,9 C 8,3 C 11,7 C 91 % 1022,8 hPa 0,0 l/m 7,4 km/h (2 Bft) SW 231 0 min 0,0 UV-I 0 W/m 7,5 C 7,9 C 11,3 km/h (2 Bft)
14.10.2021 05:56 8,9 C 8,3 C 11,7 C 91 % 1022,8 hPa 0,0 l/m 7,7 km/h (2 Bft) W 272 0 min 0,0 UV-I 0 W/m 7,5 C 7,8 C 12,9 km/h (3 Bft)
14.10.2021 05:58 8,9 C 8,3 C 11,7 C 91 % 1022,8 hPa 0,2 l/m 6,0 km/h (2 Bft) W 273 0 min 0,0 UV-I 0 W/m 7,5 C 8,2 C 11,3 km/h (2 Bft)
14.10.2021 06:00 8,9 C 8,3 C 11,7 C 91 % 1022,8 hPa 0,0 l/m 6,5 km/h (2 Bft) W-SW 242 0 min 0,0 UV-I 0 W/m 7,5 C 8,1 C 12,9 km/h (3 Bft)
14.10.2021 06:02 8,9 C 8,3 C 11,7 C 91 % 1022,8 hPa 0,0 l/m 7,1 km/h (2 Bft) SW 236 0 min 0,0 UV-I 0 W/m 7,5 C 7,9 C 16,1 km/h (3 Bft)
14.10.2021 06:04 8,9 C 8,3 C 11,7 C 91 % 1022,8 hPa 0,0 l/m 8,9 km/h (2 Bft) W-SW 257 0 min 0,0 UV-I 0 W/m 7,5 C 7,5 C 14,5 km/h (3 Bft)
14.10.2021 06:06 8,9 C 8,3 C 11,7 C 91 % 1022,8 hPa 0,0 l/m 6,7 km/h (2 Bft) W-NW 292 0 min 0,0 UV-I 0 W/m 7,5 C 8,0 C 11,3 km/h (2 Bft)
14.10.2021 06:08 8,9 C 8,3 C 11,7 C 91 % 1022,8 hPa 0,0 l/m 7,2 km/h (2 Bft) W 279 0 min 0,0 UV-I 0 W/m 7,5 C 7,9 C 16,1 km/h (3 Bft)
14.10.2021 06:10 8,9 C 8,3 C 11,7 C 91 % 1022,7 hPa 0,0 l/m 6,0 km/h (2 Bft) W-SW 256 0 min 0,0 UV-I 0 W/m 7,5 C 8,2 C 16,1 km/h (3 Bft)
14.10.2021 06:12 8,9 C 8,3 C 11,7 C 91 % 1022,7 hPa 0,0 l/m 6,2 km/h (2 Bft) W-NW 287 0 min 0,0 UV-I 0 W/m 7,5 C 8,2 C 14,5 km/h (3 Bft)
14.10.2021 06:14 8,9 C 8,3 C 11,7 C 91 % 1022,6 hPa 0,0 l/m 7,6 km/h (2 Bft) W 273 0 min 0,0 UV-I 0 W/m 7,5 C 7,8 C 16,1 km/h (3 Bft)
14.10.2021 06:16 8,9 C 8,3 C 11,7 C 91 % 1022,7 hPa 0,0 l/m 8,3 km/h (2 Bft) W 273 0 min 0,0 UV-I 0 W/m 7,5 C 7,7 C 19,3 km/h (3 Bft)
14.10.2021 06:18 8,9 C 8,3 C 11,7 C 91 % 1022,7 hPa 0,0 l/m 7,7 km/h (2 Bft) W-NW 298 0 min 0,0 UV-I 0 W/m 7,5 C 7,8 C 11,3 km/h (2 Bft)
14.10.2021 06:20 8,9 C 8,3 C 11,7 C 91 % 1022,6 hPa 0,0 l/m 6,5 km/h (2 Bft) W-SW 245 0 min 0,0 UV-I 0 W/m 7,5 C 8,1 C 9,7 km/h (2 Bft)
14.10.2021 06:22 8,9 C 8,3 C 11,7 C 91 % 1022,6 hPa 0,0 l/m 7,1 km/h (2 Bft) W-SW 258 0 min 0,0 UV-I 0 W/m 7,5 C 7,9 C 14,5 km/h (3 Bft)
14.10.2021 06:24 8,9 C 8,3 C 11,7 C 91 % 1022,6 hPa 0,0 l/m 8,1 km/h (2 Bft) W-SW 251 0 min 0,0 UV-I 0 W/m 7,5 C 7,7 C 12,9 km/h (3 Bft)
14.10.2021 06:26 8,9 C 8,3 C 11,7 C 91 % 1022,6 hPa 0,0 l/m 6,1 km/h (2 Bft) W-SW 256 0 min 0,0 UV-I 0 W/m 7,5 C 8,2 C 11,3 km/h (2 Bft)
14.10.2021 06:28 8,9 C 8,3 C 11,7 C 91 % 1022,6 hPa 0,0 l/m 7,8 km/h (2 Bft) W 269 0 min 0,0 UV-I 0 W/m 7,5 C 7,8 C 11,3 km/h (2 Bft)
14.10.2021 06:30 8,9 C 8,3 C 11,7 C 91 % 1022,6 hPa 0,2 l/m 6,4 km/h (2 Bft) W 267 0 min 0,0 UV-I 0 W/m 7,5 C 8,1 C 11,3 km/h (2 Bft)
14.10.2021 06:32 8,9 C 8,3 C 11,7 C 91 % 1022,6 hPa 0,0 l/m 7,6 km/h (2 Bft) W 278 0 min 0,0 UV-I 0 W/m 7,5 C 7,8 C 12,9 km/h (3 Bft)
14.10.2021 06:34 8,9 C 8,3 C 11,7 C 91 % 1022,6 hPa 0,0 l/m 5,4 km/h (2 Bft) W 276 0 min 0,0 UV-I 0 W/m 7,5 C 8,4 C 12,9 km/h (3 Bft)
14.10.2021 06:36 8,9 C 8,3 C 11,7 C 91 % 1022,6 hPa 0,0 l/m 6,4 km/h (2 Bft) W 271 0 min 0,0 UV-I 0 W/m 7,5 C 8,1 C 9,7 km/h (2 Bft)
14.10.2021 06:38 8,9 C 8,3 C 11,7 C 91 % 1022,6 hPa 0,0 l/m 4,6 km/h (1 Bft) W 271 0 min 0,0 UV-I 0 W/m 7,5 C 8,6 C 8,0 km/h (2 Bft)
14.10.2021 06:40 8,9 C 8,3 C 11,7 C 91 % 1022,6 hPa 0,0 l/m 5,9 km/h (2 Bft) W-SW 243 0 min 0,0 UV-I 0 W/m 7,5 C 8,2 C 9,7 km/h (2 Bft)
14.10.2021 06:42 8,9 C 8,3 C 11,7 C 91 % 1022,6 hPa 0,0 l/m 5,2 km/h (1 Bft) W-SW 253 0 min 0,0 UV-I 0 W/m 7,5 C 8,4 C 11,3 km/h (2 Bft)
14.10.2021 06:44 8,9 C 8,3 C 11,7 C 91 % 1022,6 hPa 0,0 l/m 6,7 km/h (2 Bft) W 279 0 min 0,0 UV-I 0 W/m 7,5 C 8,0 C 12,9 km/h (3 Bft)
14.10.2021 06:46 9,0 C 8,3 C 11,7 C 91 % 1022,5 hPa 0,0 l/m 5,8 km/h (2 Bft) W-SW 248 0 min 0,0 UV-I 0 W/m 7,6 C 8,4 C 9,7 km/h (2 Bft)
14.10.2021 06:48 9,0 C 8,3 C 11,7 C 91 % 1022,5 hPa 0,2 l/m 7,4 km/h (2 Bft) NW 314 0 min 0,0 UV-I 0 W/m 7,6 C 8,0 C 11,3 km/h (2 Bft)
14.10.2021 06:50 8,9 C 8,3 C 11,7 C 91 % 1022,6 hPa 0,0 l/m 6,8 km/h (2 Bft) W-NW 299 0 min 0,0 UV-I 0 W/m 7,5 C 8,0 C 11,3 km/h (2 Bft)
14.10.2021 06:52 8,9 C 8,3 C 11,7 C 91 % 1022,5 hPa 0,0 l/m 5,3 km/h (1 Bft) W-NW 291 0 min 0,0 UV-I 0 W/m 7,5 C 8,4 C 8,0 km/h (2 Bft)
14.10.2021 06:54 9,0 C 8,3 C 11,7 C 91 % 1022,5 hPa 0,0 l/m 5,2 km/h (1 Bft) NW 304 0 min 0,0 UV-I 0 W/m 7,6 C 8,6 C 9,7 km/h (2 Bft)
14.10.2021 06:56 9,0 C 8,3 C 11,7 C 91 % 1022,6 hPa 0,2 l/m 3,0 km/h (1 Bft) W-NW 283 0 min 0,0 UV-I 0 W/m 7,6 C 9,0 C 6,4 km/h (2 Bft)
14.10.2021 06:58 9,0 C 8,3 C 11,7 C 91 % 1022,6 hPa 0,0 l/m 5,5 km/h (2 Bft) W-NW 285 0 min 0,0 UV-I 0 W/m 7,6 C 8,5 C 11,3 km/h (2 Bft)
14.10.2021 07:00 9,0 C 8,3 C 11,7 C 91 % 1022,5 hPa 0,0 l/m 5,8 km/h (2 Bft) W 272 0 min 0,0 UV-I 0 W/m 7,6 C 8,4 C 9,7 km/h (2 Bft)
14.10.2021 07:02 9,0 C 8,3 C 11,7 C 91 % 1022,6 hPa 0,0 l/m 5,2 km/h (1 Bft) W 259 0 min 0,0 UV-I 0 W/m 7,6 C 8,6 C 9,7 km/h (2 Bft)
14.10.2021 07:04 9,0 C 8,3 C 11,7 C 91 % 1022,5 hPa 0,0 l/m 5,8 km/h (2 Bft) W 266 0 min 0,0 UV-I 0 W/m 7,6 C 8,4 C 11,3 km/h (2 Bft)
14.10.2021 07:06 9,0 C 8,3 C 11,7 C 91 % 1022,5 hPa 0,0 l/m 6,4 km/h (2 Bft) W 281 0 min 0,0 UV-I 0 W/m 7,6 C 8,2 C 11,3 km/h (2 Bft)
14.10.2021 07:08 9,0 C 8,3 C 11,7 C 91 % 1022,5 hPa 0,0 l/m 3,7 km/h (1 Bft) W-NW 298 0 min 0,0 UV-I 0 W/m 7,6 C 9,0 C 8,0 km/h (2 Bft)
14.10.2021 07:10 9,0 C 8,3 C 11,7 C 91 % 1022,5 hPa 0,0 l/m 5,4 km/h (2 Bft) W 274 0 min 0,0 UV-I 0 W/m 7,6 C 8,5 C 12,9 km/h (3 Bft)
14.10.2021 07:12 9,0 C 8,3 C 11,7 C 91 % 1022,5 hPa 0,0 l/m 7,8 km/h (2 Bft) NW 310 0 min 0,0 UV-I 0 W/m 7,6 C 7,9 C 12,9 km/h (3 Bft)
14.10.2021 07:14 9,0 C 8,3 C 11,7 C 91 % 1022,5 hPa 0,0 l/m 7,0 km/h (2 Bft) W 262 0 min 0,0 UV-I 0 W/m 7,6 C 8,1 C 11,3 km/h (2 Bft)
14.10.2021 07:16 9,1 C 8,3 C 11,7 C 91 % 1022,4 hPa 0,0 l/m 10,0 km/h (2 Bft) W 264 0 min 0,0 UV-I 0 W/m 7,7 C 7,6 C 12,9 km/h (3 Bft)
14.10.2021 07:18 9,1 C 8,3 C 11,7 C 91 % 1022,4 hPa 0,0 l/m 7,3 km/h (2 Bft) W 265 0 min 0,0 UV-I 0 W/m 7,7 C 8,1 C 11,3 km/h (2 Bft)
14.10.2021 07:20 9,0 C 8,3 C 11,7 C 91 % 1022,4 hPa 0,0 l/m 6,6 km/h (2 Bft) W-NW 293 0 min 0,0 UV-I 0 W/m 7,6 C 8,2 C 11,3 km/h (2 Bft)
14.10.2021 07:22 9,0 C 8,9 C 11,7 C 91 % 1022,4 hPa 0,0 l/m 6,6 km/h (2 Bft) NW 314 0 min 0,0 UV-I 0 W/m 7,6 C 8,2 C 11,3 km/h (2 Bft)
14.10.2021 07:24 9,1 C 8,9 C 11,7 C 91 % 1022,5 hPa 0,0 l/m 4,7 km/h (1 Bft) NW 308 0 min 0,0 UV-I 0 W/m 7,7 C 8,8 C 11,3 km/h (2 Bft)
14.10.2021 07:26 9,1 C 8,9 C 11,7 C 91 % 1022,5 hPa 0,0 l/m 4,3 km/h (1 Bft) NW 316 0 min 0,0 UV-I 0 W/m 7,7 C 9,1 C 11,3 km/h (2 Bft)
14.10.2021 07:28 9,1 C 8,3 C 11,7 C 91 % 1022,6 hPa 0,0 l/m 0,9 km/h (0 Bft) W 280 0 min 0,0 UV-I 0 W/m 7,7 C 9,1 C 6,4 km/h (2 Bft)
14.10.2021 07:30 9,1 C 8,9 C 11,7 C 91 % 1022,6 hPa 0,0 l/m 1,6 km/h (1 Bft) W-NW 283 0 min 0,0 UV-I 0 W/m 7,7 C 9,1 C 4,8 km/h (1 Bft)
14.10.2021 07:32 9,1 C 8,9 C 11,7 C 91 % 1022,5 hPa 0,0 l/m 3,3 km/h (1 Bft) W 272 0 min 0,0 UV-I 0 W/m 7,7 C 9,1 C 8,0 km/h (2 Bft)
14.10.2021 07:34 9,1 C 8,9 C 11,7 C 91 % 1022,5 hPa 0,0 l/m 3,8 km/h (1 Bft) W-NW 289 0 min 0,0 UV-I 0 W/m 7,7 C 9,1 C 6,4 km/h (2 Bft)
14.10.2021 07:36 9,1 C 8,9 C 11,7 C 91 % 1022,5 hPa 0,0 l/m 4,7 km/h (1 Bft) W 267 0 min 0,0 UV-I 0 W/m 7,7 C 8,8 C 9,7 km/h (2 Bft)
14.10.2021 07:38 9,1 C 8,9 C 11,7 C 91 % 1022,5 hPa 0,0 l/m 6,4 km/h (2 Bft) W-NW 303 0 min 0,0 UV-I 0 W/m 7,7 C 8,3 C 12,9 km/h (3 Bft)
14.10.2021 07:40 9,1 C 8,9 C 11,7 C 91 % 1022,5 hPa 0,0 l/m 7,9 km/h (2 Bft) W-NW 284 0 min 0,0 UV-I 0 W/m 7,7 C 8,0 C 11,3 km/h (2 Bft)
14.10.2021 07:42 9,1 C 8,9 C 11,7 C 91 % 1022,6 hPa 0,0 l/m 4,3 km/h (1 Bft) NW 310 0 min 0,0 UV-I 0 W/m 7,7 C 9,1 C 9,7 km/h (2 Bft)
14.10.2021 07:44 9,1 C 8,9 C 11,7 C 91 % 1022,6 hPa 0,0 l/m 3,7 km/h (1 Bft) NW 308 0 min 0,0 UV-I 0 W/m 7,7 C 9,1 C 6,4 km/h (2 Bft)
14.10.2021 07:46 9,1 C 8,9 C 11,7 C 91 % 1022,6 hPa 0,0 l/m 2,3 km/h (1 Bft) W 262 0 min 0,0 UV-I 0 W/m 7,7 C 9,1 C 4,8 km/h (1 Bft)
14.10.2021 07:48 9,1 C 8,9 C 11,7 C 91 % 1022,6 hPa 0,0 l/m 3,7 km/h (1 Bft) NW 314 0 min 0,0 UV-I 0 W/m 7,7 C 9,1 C 9,7 km/h (2 Bft)
14.10.2021 07:50 9,1 C 8,9 C 11,7 C 91 % 1022,5 hPa 0,0 l/m 4,6 km/h (1 Bft) W-NW 283 0 min 0,0 UV-I 0 W/m 7,7 C 8,9 C 9,7 km/h (2 Bft)
14.10.2021 07:52 9,1 C 8,9 C 11,7 C 91 % 1022,6 hPa 0,0 l/m 5,0 km/h (1 Bft) NW 304 0 min 0,0 UV-I 0 W/m 7,7 C 8,7 C 8,0 km/h (2 Bft)
14.10.2021 07:54 9,2 C 8,9 C 11,7 C 91 % 1022,6 hPa 0,0 l/m 2,3 km/h (1 Bft) W 275 0 min 0,0 UV-I 5 W/m 7,8 C 9,2 C 4,8 km/h (1 Bft)
14.10.2021 07:56 9,2 C 8,9 C 11,7 C 91 % 1022,6 hPa 0,0 l/m 3,9 km/h (1 Bft) W 273 0 min 0,0 UV-I 5 W/m 7,8 C 9,2 C 8,0 km/h (2 Bft)
14.10.2021 07:58 9,2 C 8,9 C 11,7 C 91 % 1022,6 hPa 0,0 l/m 3,6 km/h (1 Bft) NW 316 0 min 0,0 UV-I 5 W/m 7,8 C 9,2 C 6,4 km/h (2 Bft)
14.10.2021 08:00 9,2 C 8,9 C 11,7 C 91 % 1022,6 hPa 0,0 l/m 3,6 km/h (1 Bft) W 269 0 min 0,0 UV-I 5 W/m 7,8 C 9,2 C 8,0 km/h (2 Bft)
14.10.2021 08:02 9,2 C 8,9 C 11,7 C 91 % 1022,6 hPa 0,0 l/m 2,2 km/h (1 Bft) W 281 0 min 0,0 UV-I 5 W/m 7,8 C 9,2 C 4,8 km/h (1 Bft)
14.10.2021 08:04 9,1 C 8,9 C 11,7 C 91 % 1022,6 hPa 0,0 l/m 2,7 km/h (1 Bft) W 276 0 min 0,0 UV-I 5 W/m 7,7 C 9,1 C 8,0 km/h (2 Bft)
14.10.2021 08:06 9,2 C 8,9 C 11,7 C 91 % 1022,6 hPa 0,0 l/m 1,7 km/h (1 Bft) W 279 0 min 0,0 UV-I 5 W/m 7,8 C 9,2 C 4,8 km/h (1 Bft)
14.10.2021 08:08 9,2 C 8,9 C 11,7 C 91 % 1022,6 hPa 0,0 l/m 4,8 km/h (1 Bft) W 265 0 min 0,0 UV-I 5 W/m 7,8 C 8,9 C 8,0 km/h (2 Bft)
14.10.2021 08:10 9,2 C 8,9 C 11,7 C 91 % 1022,6 hPa 0,0 l/m 4,0 km/h (1 Bft) W 278 0 min 0,0 UV-I 5 W/m 7,8 C 9,2 C 8,0 km/h (2 Bft)
14.10.2021 08:12 9,2 C 8,9 C 11,7 C 91 % 1022,6 hPa 0,0 l/m 3,8 km/h (1 Bft) W 271 0 min 0,0 UV-I 5 W/m 7,8 C 9,2 C 8,0 km/h (2 Bft)
14.10.2021 08:14 9,2 C 8,9 C 11,7 C 91 % 1022,6 hPa 0,2 l/m 3,5 km/h (1 Bft) W-NW 292 0 min 0,0 UV-I 5 W/m 7,8 C 9,2 C 8,0 km/h (2 Bft)
14.10.2021 08:16 9,2 C 8,9 C 11,7 C 91 % 1022,6 hPa 0,0 l/m 2,1 km/h (1 Bft) W 271 0 min 0,0 UV-I 5 W/m 7,8 C 9,2 C 4,8 km/h (1 Bft)
14.10.2021 08:18 9,2 C 8,9 C 11,7 C 91 % 1022,6 hPa 0,0 l/m 3,3 km/h (1 Bft) W 281 0 min 0,0 UV-I 7 W/m 7,8 C 9,2 C 6,4 km/h (2 Bft)
14.10.2021 08:20 9,2 C 8,9 C 11,7 C 91 % 1022,6 hPa 0,0 l/m 4,0 km/h (1 Bft) W-NW 298 0 min 0,0 UV-I 7 W/m 7,8 C 9,2 C 8,0 km/h (2 Bft)
14.10.2021 08:22 9,2 C 8,9 C 11,7 C 91 % 1022,6 hPa 0,0 l/m 4,0 km/h (1 Bft) W 281 0 min 0,0 UV-I 9 W/m 7,8 C 9,2 C 6,4 km/h (2 Bft)
14.10.2021 08:24 9,2 C 8,9 C 11,7 C 91 % 1022,6 hPa 0,0 l/m 1,6 km/h (1 Bft) W-NW 290 0 min 0,0 UV-I 11 W/m 7,8 C 9,2 C 3,2 km/h (1 Bft)
14.10.2021 08:26 9,2 C 8,9 C 11,7 C 91 % 1022,6 hPa 0,0 l/m 3,4 km/h (1 Bft) W-NW 286 0 min 0,0 UV-I 11 W/m 7,8 C 9,2 C 6,4 km/h (2 Bft)
14.10.2021 08:28 9,2 C 8,9 C 11,7 C 91 % 1022,6 hPa 0,0 l/m 4,1 km/h (1 Bft) W 276 0 min 0,0 UV-I 12 W/m 7,8 C 9,2 C 6,4 km/h (2 Bft)
14.10.2021 08:30 9,3 C 8,9 C 11,7 C 91 % 1022,6 hPa 0,0 l/m 3,4 km/h (1 Bft) W-NW 289 0 min 0,0 UV-I 12 W/m 7,9 C 9,3 C 6,4 km/h (2 Bft)
14.10.2021 08:32 9,3 C 8,9 C 11,7 C 91 % 1022,6 hPa 0,0 l/m 3,6 km/h (1 Bft) W-NW 283 0 min 0,0 UV-I 12 W/m 7,9 C 9,3 C 6,4 km/h (2 Bft)
14.10.2021 08:34 9,3 C 8,9 C 11,7 C 91 % 1022,6 hPa 0,0 l/m 1,8 km/h (1 Bft) W 267 0 min 0,0 UV-I 12 W/m 7,9 C 9,3 C 4,8 km/h (1 Bft)
14.10.2021 08:36 9,3 C 8,9 C 11,7 C 91 % 1022,6 hPa 0,0 l/m 2,9 km/h (1 Bft) SW 231 0 min 0,0 UV-I 12 W/m 7,9 C 9,3 C 4,8 km/h (1 Bft)
14.10.2021 08:38 9,3 C 8,9 C 11,7 C 91 % 1022,6 hPa 0,0 l/m 1,4 km/h (1 Bft) W-NW 283 0 min 0,0 UV-I 14 W/m 7,9 C 9,3 C 4,8 km/h (1 Bft)
14.10.2021 08:40 9,3 C 8,9 C 11,7 C 91 % 1022,6 hPa 0,0 l/m 1,9 km/h (1 Bft) W-NW 296 0 min 0,0 UV-I 12 W/m 7,9 C 9,3 C 4,8 km/h (1 Bft)
14.10.2021 08:42 9,3 C 8,9 C 11,7 C 91 % 1022,6 hPa 0,0 l/m 4,1 km/h (1 Bft) W 280 0 min 0,0 UV-I 14 W/m 7,9 C 9,3 C 8,0 km/h (2 Bft)
14.10.2021 08:44 9,3 C 8,9 C 11,7 C 91 % 1022,6 hPa 0,0 l/m 2,6 km/h (1 Bft) W 281 0 min 0,0 UV-I 14 W/m 7,9 C 9,3 C 4,8 km/h (1 Bft)
14.10.2021 08:46 9,3 C 8,9 C 11,7 C 91 % 1022,6 hPa 0,0 l/m 1,5 km/h (1 Bft) W 281 0 min 0,0 UV-I 18 W/m 7,9 C 9,3 C 3,2 km/h (1 Bft)
14.10.2021 08:48 9,3 C 8,9 C 11,7 C 91 % 1022,6 hPa 0,0 l/m 3,6 km/h (1 Bft) W 278 0 min 0,0 UV-I 21 W/m 7,9 C 9,3 C 6,4 km/h (2 Bft)
14.10.2021 08:50 9,3 C 8,9 C 11,7 C 91 % 1022,6 hPa 0,0 l/m 3,8 km/h (1 Bft) NW 308 0 min 0,0 UV-I 25 W/m 7,9 C 9,3 C 6,4 km/h (2 Bft)
14.10.2021 08:52 9,4 C 9,4 C 11,7 C 91 % 1022,7 hPa 0,0 l/m 3,9 km/h (1 Bft) NW 312 0 min 0,0 UV-I 23 W/m 8,0 C 9,4 C 6,4 km/h (2 Bft)
14.10.2021 08:54 9,4 C 9,4 C 11,7 C 91 % 1022,7 hPa 0,0 l/m 3,0 km/h (1 Bft) W-NW 300 0 min 0,0 UV-I 23 W/m 8,0 C 9,4 C 4,8 km/h (1 Bft)
14.10.2021 08:56 9,4 C 9,4 C 11,7 C 91 % 1022,6 hPa 0,0 l/m 1,3 km/h (1 Bft) W-NW 294 0 min 0,0 UV-I 28 W/m 8,0 C 9,4 C 3,2 km/h (1 Bft)
14.10.2021 08:58 9,4 C 9,4 C 11,7 C 91 % 1022,6 hPa 0,0 l/m 2,7 km/h (1 Bft) W-NW 290 0 min 0,0 UV-I 37 W/m 8,0 C 9,4 C 8,0 km/h (2 Bft)
14.10.2021 09:00 9,4 C 9,4 C 11,7 C 91 % 1022,6 hPa 0,0 l/m 2,8 km/h (1 Bft) NW 320 0 min 0,0 UV-I 33 W/m 8,0 C 9,4 C 4,8 km/h (1 Bft)
14.10.2021 09:02 9,5 C 9,4 C 11,7 C 91 % 1022,6 hPa 0,0 l/m 4,1 km/h (1 Bft) W-NW 292 0 min 0,0 UV-I 28 W/m 8,1 C 9,5 C 9,7 km/h (2 Bft)
14.10.2021 09:04 9,5 C 9,4 C 11,7 C 91 % 1022,6 hPa 0,0 l/m 3,3 km/h (1 Bft) W-NW 298 0 min 0,0 UV-I 33 W/m 8,1 C 9,5 C 6,4 km/h (2 Bft)
14.10.2021 09:06 9,5 C 9,4 C 11,7 C 91 % 1022,6 hPa 0,0 l/m 1,8 km/h (1 Bft) W-NW 294 0 min 0,0 UV-I 30 W/m 8,1 C 9,5 C 4,8 km/h (1 Bft)
14.10.2021 09:08 9,6 C 9,4 C 11,7 C 91 % 1022,6 hPa 0,0 l/m 1,9 km/h (1 Bft) W-NW 282 0 min 0,0 UV-I 26 W/m 8,2 C 9,6 C 4,8 km/h (1 Bft)
14.10.2021 09:10 9,6 C 9,4 C 11,7 C 91 % 1022,6 hPa 0,0 l/m 2,3 km/h (1 Bft) NW 315 0 min 0,0 UV-I 23 W/m 8,2 C 9,6 C 4,8 km/h (1 Bft)
14.10.2021 09:12 9,6 C 9,4 C 11,7 C 91 % 1022,6 hPa 0,0 l/m 1,4 km/h (1 Bft) W-NW 298 0 min 0,0 UV-I 26 W/m 8,2 C 9,6 C 4,8 km/h (1 Bft)
14.10.2021 09:14 9,6 C 9,4 C 11,7 C 91 % 1022,6 hPa 0,0 l/m 1,3 km/h (1 Bft) W-NW 298 0 min 0,0 UV-I 30 W/m 8,2 C 9,6 C 3,2 km/h (1 Bft)
14.10.2021 09:16 9,6 C 9,4 C 11,7 C 91 % 1022,7 hPa 0,0 l/m 2,6 km/h (1 Bft) W-NW 290 0 min 0,0 UV-I 26 W/m 8,2 C 9,6 C 9,7 km/h (2 Bft)
14.10.2021 09:18 9,6 C 9,4 C 11,7 C 91 % 1022,7 hPa 0,0 l/m 3,6 km/h (1 Bft) W 281 0 min 0,0 UV-I 26 W/m 8,2 C 9,6 C 8,0 km/h (2 Bft)
14.10.2021 09:20 9,6 C 9,4 C 11,7 C 91 % 1022,7 hPa 0,0 l/m 0,7 km/h (0 Bft) W 281 0 min 0,0 UV-I 26 W/m 8,2 C 9,6 C 3,2 km/h (1 Bft)
14.10.2021 09:22 9,6 C 9,4 C 11,7 C 91 % 1022,7 hPa 0,0 l/m 1,4 km/h (1 Bft) W-NW 282 0 min 0,0 UV-I 30 W/m 8,2 C 9,6 C 4,8 km/h (1 Bft)
14.10.2021 09:24 9,7 C 9,4 C 11,7 C 91 % 1022,6 hPa 0,0 l/m 2,8 km/h (1 Bft) W-NW 289 0 min 0,0 UV-I 37 W/m 8,3 C 9,7 C 4,8 km/h (1 Bft)
14.10.2021 09:26 9,7 C 9,4 C 11,7 C 91 % 1022,7 hPa 0,0 l/m 1,0 km/h (0 Bft) W-NW 285 0 min 0,0 UV-I 33 W/m 8,3 C 9,7 C 3,2 km/h (1 Bft)
14.10.2021 09:28 9,7 C 9,4 C 11,7 C 91 % 1022,7 hPa 0,0 l/m 1,5 km/h (1 Bft) W-NW 285 0 min 0,0 UV-I 33 W/m 8,3 C 9,7 C 4,8 km/h (1 Bft)
14.10.2021 09:30 9,7 C 9,4 C 11,7 C 91 % 1022,6 hPa 0,2 l/m 3,0 km/h (1 Bft) NW 310 0 min 0,0 UV-I 40 W/m 8,3 C 9,7 C 6,4 km/h (2 Bft)
14.10.2021 09:32 9,8 C 10,0 C 11,7 C 91 % 1022,6 hPa 0,0 l/m 2,1 km/h (1 Bft) W 263 0 min 0,0 UV-I 40 W/m 8,4 C 9,8 C 4,8 km/h (1 Bft)
14.10.2021 09:34 9,8 C 9,4 C 11,7 C 91 % 1022,6 hPa 0,0 l/m 3,0 km/h (1 Bft) W-NW 288 0 min 0,0 UV-I 37 W/m 8,4 C 9,8 C 4,8 km/h (1 Bft)
14.10.2021 09:36 9,8 C 10,0 C 11,7 C 91 % 1022,6 hPa 0,0 l/m 1,9 km/h (1 Bft) W-NW 292 0 min 0,0 UV-I 44 W/m 8,4 C 9,8 C 6,4 km/h (2 Bft)
14.10.2021 09:38 9,8 C 10,0 C 11,7 C 91 % 1022,6 hPa 0,0 l/m 3,9 km/h (1 Bft) W-NW 282 0 min 0,0 UV-I 47 W/m 8,4 C 9,8 C 6,4 km/h (2 Bft)
14.10.2021 09:40 9,9 C 10,0 C 11,7 C 91 % 1022,7 hPa 0,2 l/m 1,0 km/h (0 Bft) W 263 0 min 0,0 UV-I 51 W/m 8,5 C 9,9 C 3,2 km/h (1 Bft)
14.10.2021 09:42 9,9 C 10,0 C 11,7 C 91 % 1022,7 hPa 0,0 l/m 0,1 km/h (0 Bft) W 264 0 min 0,0 UV-I 47 W/m 8,5 C 9,9 C 1,6 km/h (1 Bft)
14.10.2021 09:44 9,9 C 10,0 C 11,7 C 91 % 1022,7 hPa 0,0 l/m 2,4 km/h (1 Bft) W 277 0 min 0,0 UV-I 49 W/m 8,5 C 9,9 C 6,4 km/h (2 Bft)
14.10.2021 09:46 9,9 C 10,0 C 11,7 C 91 % 1022,7 hPa 0,0 l/m 4,2 km/h (1 Bft) W-SW 254 0 min 0,0 UV-I 54 W/m 8,5 C 9,9 C 8,0 km/h (2 Bft)
14.10.2021 09:48 9,9 C 10,0 C 11,7 C 91 % 1022,8 hPa 0,0 l/m 4,1 km/h (1 Bft) W 277 0 min 0,0 UV-I 53 W/m 8,5 C 9,9 C 6,4 km/h (2 Bft)
14.10.2021 09:50 9,9 C 10,0 C 11,7 C 91 % 1022,8 hPa 0,2 l/m 3,0 km/h (1 Bft) W-NW 295 0 min 0,0 UV-I 53 W/m 8,5 C 9,9 C 8,0 km/h (2 Bft)
14.10.2021 09:52 9,9 C 10,0 C 11,7 C 91 % 1022,7 hPa 0,0 l/m 0,9 km/h (0 Bft) W-NW 285 0 min 0,0 UV-I 54 W/m 8,5 C 9,9 C 4,8 km/h (1 Bft)
14.10.2021 09:54 10,0 C 10,0 C 11,7 C 91 % 1022,8 hPa 0,2 l/m 0,9 km/h (0 Bft) W-NW 284 0 min 0,0 UV-I 56 W/m 8,6 C 10,0 C 3,2 km/h (1 Bft)
14.10.2021 09:56 10,1 C 10,6 C 11,7 C 91 % 1022,7 hPa 0,0 l/m 1,4 km/h (1 Bft) W-NW 293 0 min 0,5 UV-I 56 W/m 8,7 C 10,1 C 3,2 km/h (1 Bft)
14.10.2021 09:58 10,0 C 10,6 C 11,7 C 91 % 1022,7 hPa 0,2 l/m 3,6 km/h (1 Bft) W-NW 293 0 min 0,5 UV-I 60 W/m 8,6 C 10,0 C 6,4 km/h (2 Bft)
14.10.2021 10:00 10,1 C 10,0 C 11,7 C 91 % 1022,8 hPa 0,2 l/m 3,8 km/h (1 Bft) W-NW 287 0 min 0,5 UV-I 58 W/m 8,7 C 10,1 C 6,4 km/h (2 Bft)
14.10.2021 10:02 10,1 C 10,0 C 11,7 C 91 % 1022,8 hPa 0,0 l/m 3,4 km/h (1 Bft) W-NW 294 0 min 0,5 UV-I 60 W/m 8,7 C 10,1 C 8,0 km/h (2 Bft)
14.10.2021 10:04 10,1 C 10,0 C 11,7 C 91 % 1022,7 hPa 0,2 l/m 2,3 km/h (1 Bft) W 271 0 min 0,5 UV-I 62 W/m 8,7 C 10,1 C 8,0 km/h (2 Bft)
14.10.2021 10:06 10,1 C 10,6 C 11,7 C 91 % 1022,8 hPa 0,2 l/m 2,9 km/h (1 Bft) W-NW 287 0 min 0,5 UV-I 60 W/m 8,7 C 10,1 C 6,4 km/h (2 Bft)
14.10.2021 10:08 10,1 C 10,6 C 11,7 C 91 % 1022,8 hPa 0,0 l/m 2,4 km/h (1 Bft) W 267 0 min 0,5 UV-I 70 W/m 8,7 C 10,1 C 3,2 km/h (1 Bft)
14.10.2021 10:10 10,1 C 10,6 C 11,7 C 91 % 1022,8 hPa 0,2 l/m 2,1 km/h (1 Bft) W-NW 292 0 min 0,5 UV-I 74 W/m 8,7 C 10,1 C 4,8 km/h (1 Bft)
14.10.2021 10:12 10,2 C 10,6 C 11,7 C 91 % 1022,8 hPa 0,2 l/m 5,1 km/h (1 Bft) W-NW 296 0 min 0,6 UV-I 76 W/m 8,8 C 10,2 C 8,0 km/h (2 Bft)
14.10.2021 10:14 10,2 C 10,6 C 11,7 C 91 % 1022,8 hPa 0,0 l/m 4,7 km/h (1 Bft) W-NW 287 0 min 0,5 UV-I 62 W/m 8,8 C 10,2 C 8,0 km/h (2 Bft)
14.10.2021 10:16 10,2 C 10,6 C 11,7 C 91 % 1022,7 hPa 0,2 l/m 4,7 km/h (1 Bft) W 273 0 min 0,0 UV-I 54 W/m 8,8 C 10,2 C 8,0 km/h (2 Bft)
14.10.2021 10:18 10,2 C 10,6 C 11,7 C 91 % 1022,7 hPa 0,0 l/m 5,2 km/h (1 Bft) W 260 0 min 0,0 UV-I 51 W/m 8,8 C 10,2 C 8,0 km/h (2 Bft)
14.10.2021 10:20 10,1 C 10,6 C 11,7 C 91 % 1022,8 hPa 0,0 l/m 3,5 km/h (1 Bft) W-NW 295 0 min 0,0 UV-I 53 W/m 8,7 C 10,1 C 8,0 km/h (2 Bft)
14.10.2021 10:22 10,2 C 10,6 C 11,7 C 91 % 1022,7 hPa 0,0 l/m 2,8 km/h (1 Bft) W 275 0 min 0,5 UV-I 65 W/m 8,8 C 10,2 C 8,0 km/h (2 Bft)
14.10.2021 10:24 10,2 C 10,6 C 11,7 C 91 % 1022,8 hPa 0,0 l/m 4,9 km/h (1 Bft) W-NW 288 0 min 0,5 UV-I 63 W/m 8,8 C 10,2 C 9,7 km/h (2 Bft)
14.10.2021 10:26 10,2 C 10,6 C 11,7 C 91 % 1022,8 hPa 0,2 l/m 3,8 km/h (1 Bft) W-NW 290 0 min 0,5 UV-I 72 W/m 8,8 C 10,2 C 8,0 km/h (2 Bft)
14.10.2021 10:28 10,3 C 10,6 C 11,7 C 91 % 1022,7 hPa 0,0 l/m 1,1 km/h (1 Bft) W-NW 287 0 min 0,5 UV-I 69 W/m 8,9 C 10,3 C 3,2 km/h (1 Bft)
14.10.2021 10:30 10,3 C 10,6 C 11,7 C 91 % 1022,8 hPa 0,0 l/m 3,2 km/h (1 Bft) W 277 0 min 0,0 UV-I 54 W/m 8,9 C 10,3 C 8,0 km/h (2 Bft)
14.10.2021 10:32 10,3 C 10,6 C 11,7 C 91 % 1022,7 hPa 0,0 l/m 4,1 km/h (1 Bft) W-NW 283 0 min 0,0 UV-I 46 W/m 8,9 C 10,3 C 6,4 km/h (2 Bft)
14.10.2021 10:34 10,3 C 10,6 C 11,7 C 91 % 1022,8 hPa 0,0 l/m 2,3 km/h (1 Bft) W-NW 287 0 min 0,0 UV-I 42 W/m 8,9 C 10,3 C 4,8 km/h (1 Bft)
14.10.2021 10:36 10,3 C 10,6 C 11,7 C 91 % 1022,8 hPa 0,0 l/m 5,1 km/h (1 Bft) W-NW 291 0 min 0,0 UV-I 44 W/m 8,9 C 10,3 C 8,0 km/h (2 Bft)
14.10.2021 10:38 10,3 C 10,6 C 11,7 C 91 % 1022,7 hPa 0,0 l/m 4,8 km/h (1 Bft) W-NW 294 0 min 0,0 UV-I 56 W/m 8,9 C 10,3 C 8,0 km/h (2 Bft)
14.10.2021 10:40 10,3 C 10,6 C 11,7 C 91 % 1022,8 hPa 0,0 l/m 5,4 km/h (2 Bft) W 281 0 min 0,5 UV-I 58 W/m 8,9 C 10,3 C 9,7 km/h (2 Bft)
14.10.2021 10:42 10,3 C 10,6 C 11,7 C 91 % 1022,7 hPa 0,0 l/m 3,5 km/h (1 Bft) N-NO 18 0 min 0,0 UV-I 53 W/m 8,9 C 10,3 C 6,4 km/h (2 Bft)
14.10.2021 10:44 10,4 C 10,6 C 11,7 C 91 % 1022,7 hPa 0,0 l/m 6,5 km/h (2 Bft) W-NW 293 0 min 0,0 UV-I 40 W/m 9,0 C 10,4 C 9,7 km/h (2 Bft)
14.10.2021 10:46 10,4 C 10,6 C 11,7 C 91 % 1022,8 hPa 0,0 l/m 4,8 km/h (1 Bft) NW 323 0 min 0,0 UV-I 40 W/m 9,0 C 10,4 C 8,0 km/h (2 Bft)
14.10.2021 10:48 10,4 C 10,6 C 11,7 C 91 % 1022,8 hPa 0,0 l/m 3,0 km/h (1 Bft) N-NW 333 0 min 0,0 UV-I 49 W/m 9,0 C 10,4 C 4,8 km/h (1 Bft)
14.10.2021 10:50 10,4 C 10,6 C 11,7 C 91 % 1022,7 hPa 0,0 l/m 1,2 km/h (1 Bft) N-NW 341 0 min 0,0 UV-I 53 W/m 9,0 C 10,4 C 4,8 km/h (1 Bft)
14.10.2021 10:52 10,5 C 10,6 C 11,7 C 91 % 1022,7 hPa 0,0 l/m 1,7 km/h (1 Bft) W-SW 254 0 min 0,0 UV-I 44 W/m 9,1 C 10,5 C 4,8 km/h (1 Bft)
14.10.2021 10:54 10,5 C 10,6 C 11,7 C 91 % 1022,7 hPa 0,0 l/m 5,3 km/h (1 Bft) N-NW 335 0 min 0,0 UV-I 42 W/m 9,1 C 10,5 C 9,7 km/h (2 Bft)
14.10.2021 10:56 10,5 C 10,6 C 11,7 C 91 % 1022,7 hPa 0,0 l/m 4,1 km/h (1 Bft) W 276 0 min 0,0 UV-I 40 W/m 9,1 C 10,5 C 9,7 km/h (2 Bft)
14.10.2021 10:58 10,6 C 10,6 C 11,7 C 91 % 1022,6 hPa 0,0 l/m 4,0 km/h (1 Bft) W-NW 290 0 min 0,0 UV-I 47 W/m 9,2 C 10,6 C 8,0 km/h (2 Bft)
14.10.2021 11:00 10,6 C 10,6 C 11,7 C 91 % 1022,6 hPa 0,0 l/m 5,2 km/h (1 Bft) NW 312 0 min 0,5 UV-I 58 W/m 9,2 C 10,6 C 9,7 km/h (2 Bft)
14.10.2021 11:02 10,6 C 10,6 C 11,7 C 91 % 1022,6 hPa 0,0 l/m 4,9 km/h (1 Bft) NW 314 0 min 0,5 UV-I 51 W/m 9,2 C 10,6 C 9,7 km/h (2 Bft)
14.10.2021 11:04 10,6 C 10,6 C 11,7 C 91 % 1022,6 hPa 0,0 l/m 4,8 km/h (1 Bft) NW 306 0 min 0,0 UV-I 47 W/m 9,2 C 10,6 C 8,0 km/h (2 Bft)
14.10.2021 11:06 10,7 C 10,6 C 11,7 C 91 % 1022,7 hPa 0,0 l/m 4,4 km/h (1 Bft) NW 304 0 min 0,0 UV-I 51 W/m 9,3 C 10,7 C 8,0 km/h (2 Bft)
14.10.2021 11:08 10,7 C 10,6 C 11,7 C 91 % 1022,7 hPa 0,0 l/m 5,5 km/h (2 Bft) NW 307 0 min 0,0 UV-I 46 W/m 9,3 C 10,7 C 11,3 km/h (2 Bft)
14.10.2021 11:10 10,7 C 10,6 C 11,7 C 91 % 1022,6 hPa 0,0 l/m 2,8 km/h (1 Bft) W 276 0 min 0,5 UV-I 58 W/m 9,3 C 10,7 C 8,0 km/h (2 Bft)
14.10.2021 11:12 10,8 C 11,1 C 11,7 C 91 % 1022,6 hPa 0,0 l/m 4,7 km/h (1 Bft) N-NW 329 0 min 0,6 UV-I 60 W/m 9,4 C 10,8 C 9,7 km/h (2 Bft)
14.10.2021 11:14 10,8 C 11,1 C 11,7 C 91 % 1022,6 hPa 0,0 l/m 6,2 km/h (2 Bft) N-NW 327 0 min 0,6 UV-I 65 W/m 9,4 C 10,8 C 11,3 km/h (2 Bft)
14.10.2021 11:16 10,8 C 11,1 C 11,7 C 92 % 1022,6 hPa 0,0 l/m 4,8 km/h (1 Bft) N 350 0 min 0,6 UV-I 65 W/m 9,6 C 10,8 C 8,0 km/h (2 Bft)
14.10.2021 11:18 10,9 C 11,1 C 11,7 C 91 % 1022,6 hPa 0,0 l/m 3,9 km/h (1 Bft) W-NW 297 0 min 0,7 UV-I 76 W/m 9,5 C 10,9 C 6,4 km/h (2 Bft)
14.10.2021 11:20 10,9 C 11,1 C 11,7 C 91 % 1022,6 hPa 0,0 l/m 2,2 km/h (1 Bft) N-NW 332 0 min 0,7 UV-I 97 W/m 9,5 C 10,9 C 8,0 km/h (2 Bft)
14.10.2021 11:22 11,0 C 11,7 C 11,7 C 91 % 1022,6 hPa 0,0 l/m 2,6 km/h (1 Bft) NW 319 0 min 0,8 UV-I 109 W/m 9,6 C 11,0 C 8,0 km/h (2 Bft)
14.10.2021 11:24 11,1 C 11,7 C 11,7 C 91 % 1022,6 hPa 0,0 l/m 4,1 km/h (1 Bft) N-NW 343 0 min 0,9 UV-I 125 W/m 9,7 C 11,1 C 8,0 km/h (2 Bft)
14.10.2021 11:26 11,1 C 11,7 C 11,7 C 91 % 1022,6 hPa 0,0 l/m 3,3 km/h (1 Bft) N-NW 339 0 min 0,8 UV-I 121 W/m 9,7 C 11,1 C 8,0 km/h (2 Bft)
14.10.2021 11:28 11,2 C 12,2 C 11,7 C 92 % 1022,6 hPa 0,0 l/m 2,8 km/h (1 Bft) NW 319 0 min 0,8 UV-I 128 W/m 9,9 C 11,2 C 6,4 km/h (2 Bft)
14.10.2021 11:30 11,3 C 12,2 C 11,7 C 92 % 1022,6 hPa 0,0 l/m 4,0 km/h (1 Bft) NW 314 0 min 0,8 UV-I 128 W/m 10,0 C 11,3 C 8,0 km/h (2 Bft)
14.10.2021 11:32 11,3 C 12,2 C 11,7 C 91 % 1022,7 hPa 0,0 l/m 3,2 km/h (1 Bft) NW 325 0 min 0,7 UV-I 105 W/m 9,9 C 11,3 C 6,4 km/h (2 Bft)
14.10.2021 11:34 11,4 C 12,2 C 11,7 C 91 % 1022,6 hPa 0,0 l/m 3,1 km/h (1 Bft) N 359 0 min 0,8 UV-I 107 W/m 10,0 C 11,4 C 6,4 km/h (2 Bft)
14.10.2021 11:36 11,4 C 12,2 C 11,7 C 91 % 1022,7 hPa 0,0 l/m 4,6 km/h (1 Bft) N-NW 329 0 min 0,7 UV-I 93 W/m 10,0 C 11,4 C 8,0 km/h (2 Bft)
14.10.2021 11:38 11,4 C 12,2 C 11,7 C 91 % 1022,6 hPa 0,0 l/m 1,4 km/h (1 Bft) NW 326 0 min 0,7 UV-I 84 W/m 10,0 C 11,4 C 4,8 km/h (1 Bft)
14.10.2021 11:40 11,5 C 12,2 C 11,7 C 91 % 1022,7 hPa 0,0 l/m 3,1 km/h (1 Bft) N-NW 339 0 min 0,7 UV-I 86 W/m 10,1 C 11,5 C 8,0 km/h (2 Bft)
14.10.2021 11:42 11,5 C 12,2 C 11,7 C 91 % 1022,6 hPa 0,0 l/m 6,5 km/h (2 Bft) N-NW 342 0 min 0,7 UV-I 88 W/m 10,1 C 11,5 C 11,3 km/h (2 Bft)
14.10.2021 11:44 11,5 C 12,2 C 11,7 C 91 % 1022,6 hPa 0,0 l/m 1,9 km/h (1 Bft) NW 324 0 min 0,8 UV-I 107 W/m 10,1 C 11,5 C 4,8 km/h (1 Bft)
14.10.2021 11:46 11,7 C 12,8 C 11,7 C 91 % 1022,6 hPa 0,0 l/m 3,8 km/h (1 Bft) N-NW 329 0 min 0,8 UV-I 109 W/m 10,3 C 11,7 C 9,7 km/h (2 Bft)
14.10.2021 11:48 11,7 C 12,8 C 11,7 C 91 % 1022,6 hPa 0,0 l/m 5,2 km/h (1 Bft) N-NW 335 0 min 0,9 UV-I 113 W/m 10,3 C 11,7 C 11,3 km/h (2 Bft)
14.10.2021 11:50 11,7 C 12,8 C 11,7 C 91 % 1022,6 hPa 0,0 l/m 6,7 km/h (2 Bft) N-NW 336 0 min 0,8 UV-I 116 W/m 10,3 C 11,7 C 11,3 km/h (2 Bft)
14.10.2021 11:52 11,7 C 12,8 C 11,7 C 91 % 1022,7 hPa 0,0 l/m 4,9 km/h (1 Bft) N-NW 342 0 min 0,8 UV-I 111 W/m 10,3 C 11,7 C 8,0 km/h (2 Bft)
14.10.2021 11:54 11,8 C 12,8 C 11,7 C 91 % 1022,7 hPa 0,0 l/m 4,4 km/h (1 Bft) NW 308 0 min 0,8 UV-I 125 W/m 10,4 C 11,8 C 8,0 km/h (2 Bft)
14.10.2021 11:56 11,8 C 12,8 C 11,7 C 91 % 1022,7 hPa 0,0 l/m 7,3 km/h (2 Bft) NW 317 0 min 0,8 UV-I 125 W/m 10,4 C 11,8 C 12,9 km/h (3 Bft)
14.10.2021 11:58 11,8 C 12,8 C 11,7 C 91 % 1022,7 hPa 0,0 l/m 7,0 km/h (2 Bft) NW 306 0 min 0,7 UV-I 88 W/m 10,4 C 11,8 C 14,5 km/h (3 Bft)
14.10.2021 12:00 11,8 C 12,8 C 11,7 C 91 % 1022,7 hPa 0,0 l/m 5,7 km/h (2 Bft) NW 325 0 min 0,6 UV-I 69 W/m 10,4 C 11,8 C 14,5 km/h (3 Bft)
14.10.2021 12:02 11,8 C 12,8 C 11,7 C 91 % 1022,7 hPa 0,0 l/m 2,6 km/h (1 Bft) N-NW 341 0 min 0,6 UV-I 65 W/m 10,4 C 11,8 C 6,4 km/h (2 Bft)
14.10.2021 12:04 11,9 C 12,8 C 11,7 C 91 % 1022,7 hPa 0,0 l/m 4,8 km/h (1 Bft) N-NW 329 0 min 0,5 UV-I 62 W/m 10,5 C 11,9 C 11,3 km/h (2 Bft)
14.10.2021 12:06 11,9 C 12,8 C 11,7 C 91 % 1022,7 hPa 0,0 l/m 4,8 km/h (1 Bft) N-NW 329 0 min 0,6 UV-I 62 W/m 10,5 C 11,9 C 8,0 km/h (2 Bft)
14.10.2021 12:08 11,8 C 12,2 C 11,7 C 91 % 1022,7 hPa 0,0 l/m 6,3 km/h (2 Bft) W-NW 298 0 min 0,5 UV-I 56 W/m 10,4 C 11,8 C 9,7 km/h (2 Bft)
14.10.2021 12:10 11,8 C 12,2 C 11,7 C 91 % 1022,7 hPa 0,0 l/m 3,8 km/h (1 Bft) N-NW 331 0 min 0,6 UV-I 67 W/m 10,4 C 11,8 C 9,7 km/h (2 Bft)
14.10.2021 12:12 11,8 C 12,2 C 11,7 C 91 % 1022,7 hPa 0,0 l/m 4,4 km/h (1 Bft) N-NW 329 0 min 0,6 UV-I 70 W/m 10,4 C 11,8 C 9,7 km/h (2 Bft)
14.10.2021 12:14 11,8 C 12,8 C 11,7 C 90 % 1022,7 hPa 0,0 l/m 5,4 km/h (2 Bft) N-NW 347 0 min 0,6 UV-I 62 W/m 10,2 C 11,8 C 8,0 km/h (2 Bft)
14.10.2021 12:16 11,8 C 12,2 C 11,7 C 90 % 1022,7 hPa 0,0 l/m 7,0 km/h (2 Bft) N-NW 327 0 min 0,0 UV-I 51 W/m 10,2 C 11,8 C 14,5 km/h (3 Bft)
14.10.2021 12:18 11,8 C 12,2 C 11,7 C 90 % 1022,7 hPa 0,0 l/m 8,7 km/h (2 Bft) W-NW 293 0 min 0,6 UV-I 83 W/m 10,2 C 11,8 C 12,9 km/h (3 Bft)
14.10.2021 12:20 11,8 C 12,8 C 11,7 C 90 % 1022,7 hPa 0,0 l/m 6,4 km/h (2 Bft) N-NW 342 0 min 0,8 UV-I 98 W/m 10,2 C 11,8 C 12,9 km/h (3 Bft)
14.10.2021 12:22 11,8 C 12,8 C 11,7 C 90 % 1022,6 hPa 0,0 l/m 6,7 km/h (2 Bft) N-NW 332 0 min 0,7 UV-I 83 W/m 10,2 C 11,8 C 9,7 km/h (2 Bft)
14.10.2021 12:24 11,8 C 12,8 C 11,7 C 90 % 1022,7 hPa 0,0 l/m 5,3 km/h (1 Bft) N 356 0 min 0,6 UV-I 65 W/m 10,2 C 11,8 C 9,7 km/h (2 Bft)
14.10.2021 12:26 11,8 C 12,8 C 11,7 C 90 % 1022,7 hPa 0,0 l/m 3,9 km/h (1 Bft) N-NW 330 0 min 0,6 UV-I 67 W/m 10,2 C 11,8 C 9,7 km/h (2 Bft)
14.10.2021 12:28 11,8 C 12,8 C 11,7 C 90 % 1022,7 hPa 0,0 l/m 5,6 km/h (2 Bft) N-NW 333 0 min 0,7 UV-I 81 W/m 10,2 C 11,8 C 9,7 km/h (2 Bft)
14.10.2021 12:30 11,9 C 12,8 C 11,7 C 90 % 1022,7 hPa 0,0 l/m 4,5 km/h (1 Bft) N-NW 346 0 min 1,0 UV-I 114 W/m 10,3 C 11,9 C 8,0 km/h (2 Bft)
14.10.2021 12:32 11,9 C 13,3 C 11,7 C 90 % 1022,7 hPa 0,0 l/m 6,0 km/h (2 Bft) NW 315 0 min 0,8 UV-I 98 W/m 10,3 C 11,9 C 9,7 km/h (2 Bft)
14.10.2021 12:34 11,9 C 13,3 C 11,7 C 90 % 1022,7 hPa 0,0 l/m 5,0 km/h (1 Bft) N-NW 337 0 min 0,7 UV-I 74 W/m 10,3 C 11,9 C 8,0 km/h (2 Bft)
14.10.2021 12:36 12,0 C 13,3 C 11,7 C 90 % 1022,7 hPa 0,0 l/m 3,8 km/h (1 Bft) N-NW 344 0 min 0,7 UV-I 88 W/m 10,4 C 12,0 C 9,7 km/h (2 Bft)
14.10.2021 12:38 12,0 C 13,3 C 11,7 C 90 % 1022,7 hPa 0,0 l/m 3,9 km/h (1 Bft) NW 310 0 min 1,0 UV-I 144 W/m 10,4 C 12,0 C 14,5 km/h (3 Bft)
14.10.2021 12:40 12,1 C 13,3 C 11,7 C 89 % 1022,7 hPa 0,0 l/m 8,7 km/h (2 Bft) N-NW 337 0 min 0,9 UV-I 132 W/m 10,3 C 12,1 C 16,1 km/h (3 Bft)
14.10.2021 12:42 12,1 C 13,3 C 11,7 C 89 % 1022,7 hPa 0,0 l/m 6,8 km/h (2 Bft) N-NW 327 0 min 1,0 UV-I 151 W/m 10,3 C 12,1 C 11,3 km/h (2 Bft)
14.10.2021 12:44 12,1 C 13,9 C 11,7 C 89 % 1022,6 hPa 0,0 l/m 7,0 km/h (2 Bft) NW 325 0 min 1,3 UV-I 186 W/m 10,3 C 12,1 C 11,3 km/h (2 Bft)
14.10.2021 12:46 12,2 C 14,4 C 11,7 C 89 % 1022,6 hPa 0,0 l/m 6,0 km/h (2 Bft) N 4 0 min 1,3 UV-I 250 W/m 10,4 C 12,2 C 11,3 km/h (2 Bft)
14.10.2021 12:48 12,3 C 15,6 C 11,7 C 89 % 1022,5 hPa 0,0 l/m 5,0 km/h (1 Bft) N-NW 347 0 min 1,3 UV-I 195 W/m 10,5 C 12,3 C 9,7 km/h (2 Bft)
14.10.2021 12:50 12,4 C 15,6 C 11,7 C 89 % 1022,6 hPa 0,0 l/m 6,1 km/h (2 Bft) NW 323 0 min 1,2 UV-I 179 W/m 10,6 C 12,4 C 12,9 km/h (3 Bft)
14.10.2021 12:52 12,4 C 15,6 C 11,7 C 88 % 1022,5 hPa 0,0 l/m 4,0 km/h (1 Bft) N-NW 348 0 min 1,3 UV-I 209 W/m 10,5 C 12,4 C 9,7 km/h (2 Bft)
14.10.2021 12:54 12,5 C 15,6 C 11,7 C 88 % 1022,5 hPa 0,0 l/m 6,3 km/h (2 Bft) W-NW 300 0 min 1,3 UV-I 214 W/m 10,6 C 12,5 C 12,9 km/h (3 Bft)
14.10.2021 12:56 12,6 C 16,1 C 11,7 C 88 % 1022,4 hPa 0,0 l/m 5,1 km/h (1 Bft) N-NW 334 0 min 1,3 UV-I 223 W/m 10,7 C 12,6 C 8,0 km/h (2 Bft)
14.10.2021 12:58 12,6 C 16,1 C 11,7 C 88 % 1022,4 hPa 0,0 l/m 3,3 km/h (1 Bft) W-NW 300 0 min 1,2 UV-I 206 W/m 10,7 C 12,6 C 6,4 km/h (2 Bft)
14.10.2021 13:00 12,7 C 17,2 C 11,7 C 88 % 1022,4 hPa 0,0 l/m 2,1 km/h (1 Bft) NW 319 0 min 1,5 UV-I 230 W/m 10,8 C 12,7 C 6,4 km/h (2 Bft)
14.10.2021 13:02 12,8 C 17,8 C 11,7 C 88 % 1022,3 hPa 0,0 l/m 3,9 km/h (1 Bft) NW 310 2 min 1,3 UV-I 278 W/m 10,9 C 12,8 C 8,0 km/h (2 Bft)
14.10.2021 13:04 13,0 C 17,8 C 11,7 C 88 % 1022,2 hPa 0,0 l/m 1,4 km/h (1 Bft) NW 314 0 min 1,3 UV-I 206 W/m 11,1 C 13,0 C 4,8 km/h (1 Bft)
14.10.2021 13:06 13,1 C 17,8 C 11,7 C 87 % 1022,2 hPa 0,0 l/m 3,6 km/h (1 Bft) NW 317 2 min 1,6 UV-I 315 W/m 11,0 C 13,1 C 6,4 km/h (2 Bft)
14.10.2021 13:08 13,2 C 18,3 C 11,7 C 87 % 1022,2 hPa 0,0 l/m 2,3 km/h (1 Bft) NW 315 2 min 1,5 UV-I 336 W/m 11,1 C 13,2 C 3,2 km/h (1 Bft)
14.10.2021 13:10 13,3 C 18,9 C 11,7 C 87 % 1022,1 hPa 0,0 l/m 4,1 km/h (1 Bft) N-NW 327 2 min 1,7 UV-I 343 W/m 11,2 C 13,3 C 8,0 km/h (2 Bft)
14.10.2021 13:12 13,4 C 20,0 C 11,7 C 87 % 1022,0 hPa 0,0 l/m 5,6 km/h (2 Bft) N-NW 329 2 min 1,6 UV-I 329 W/m 11,3 C 13,4 C 9,7 km/h (2 Bft)
14.10.2021 13:14 13,3 C 18,9 C 11,7 C 86 % 1022,0 hPa 0,0 l/m 5,0 km/h (1 Bft) N-NW 332 2 min 1,3 UV-I 309 W/m 11,0 C 13,3 C 9,7 km/h (2 Bft)
14.10.2021 13:16 13,4 C 18,3 C 11,7 C 86 % 1022,0 hPa 0,0 l/m 3,5 km/h (1 Bft) N-NW 344 0 min 1,1 UV-I 181 W/m 11,1 C 13,4 C 6,4 km/h (2 Bft)
14.10.2021 13:18 13,3 C 17,2 C 11,7 C 86 % 1022,0 hPa 0,0 l/m 7,1 km/h (2 Bft) NW 308 0 min 1,1 UV-I 207 W/m 11,0 C 13,3 C 9,7 km/h (2 Bft)
14.10.2021 13:20 13,3 C 16,7 C 11,7 C 85 % 1022,0 hPa 0,0 l/m 5,9 km/h (2 Bft) N-NW 328 0 min 1,1 UV-I 214 W/m 10,8 C 13,3 C 9,7 km/h (2 Bft)
14.10.2021 13:22 13,3 C 16,1 C 12,2 C 86 % 1022,1 hPa 0,0 l/m 5,6 km/h (2 Bft) N-NW 343 0 min 1,0 UV-I 188 W/m 11,0 C 13,3 C 11,3 km/h (2 Bft)
14.10.2021 13:24 13,4 C 16,7 C 11,7 C 86 % 1022,1 hPa 0,0 l/m 6,0 km/h (2 Bft) N-NW 339 0 min 1,2 UV-I 192 W/m 11,1 C 13,4 C 9,7 km/h (2 Bft)
14.10.2021 13:26 13,4 C 16,1 C 11,7 C 85 % 1022,0 hPa 0,0 l/m 6,4 km/h (2 Bft) N-NW 348 0 min 1,2 UV-I 171 W/m 10,9 C 13,4 C 9,7 km/h (2 Bft)
14.10.2021 13:28 13,4 C 15,6 C 12,2 C 85 % 1022,0 hPa 0,0 l/m 5,3 km/h (1 Bft) NW 323 0 min 1,0 UV-I 137 W/m 10,9 C 13,4 C 8,0 km/h (2 Bft)
14.10.2021 13:30 13,5 C 15,6 C 11,7 C 85 % 1022,0 hPa 0,0 l/m 1,5 km/h (1 Bft) N-NW 332 0 min 1,0 UV-I 144 W/m 11,0 C 13,5 C 4,8 km/h (1 Bft)
14.10.2021 13:32 13,6 C 16,1 C 11,7 C 85 % 1022,1 hPa 0,0 l/m 2,2 km/h (1 Bft) NW 317 0 min 1,1 UV-I 176 W/m 11,1 C 13,6 C 4,8 km/h (1 Bft)
14.10.2021 13:34 13,6 C 16,1 C 12,2 C 85 % 1022,0 hPa 0,0 l/m 2,3 km/h (1 Bft) NW 313 0 min 1,0 UV-I 144 W/m 11,1 C 13,6 C 4,8 km/h (1 Bft)
14.10.2021 13:36 13,6 C 16,1 C 12,2 C 85 % 1022,0 hPa 0,0 l/m 4,7 km/h (1 Bft) N-NW 347 0 min 1,1 UV-I 167 W/m 11,1 C 13,6 C 8,0 km/h (2 Bft)
14.10.2021 13:38 13,6 C 16,1 C 12,2 C 85 % 1022,0 hPa 0,0 l/m 4,4 km/h (1 Bft) N 354 0 min 1,3 UV-I 241 W/m 11,1 C 13,6 C 8,0 km/h (2 Bft)
14.10.2021 13:40 13,6 C 16,7 C 12,2 C 85 % 1022,0 hPa 0,0 l/m 1,2 km/h (1 Bft) N-NW 328 0 min 1,4 UV-I 241 W/m 11,1 C 13,6 C 3,2 km/h (1 Bft)
14.10.2021 13:42 13,7 C 16,7 C 11,7 C 85 % 1022,0 hPa 0,0 l/m 4,9 km/h (1 Bft) N 350 0 min 1,0 UV-I 151 W/m 11,2 C 13,7 C 9,7 km/h (2 Bft)
14.10.2021 13:44 13,7 C 16,7 C 11,7 C 85 % 1021,9 hPa 0,0 l/m 3,4 km/h (1 Bft) NW 309 0 min 1,1 UV-I 186 W/m 11,2 C 13,7 C 6,4 km/h (2 Bft)
14.10.2021 13:46 13,8 C 16,1 C 11,7 C 85 % 1021,9 hPa 0,0 l/m 7,2 km/h (2 Bft) N-NW 338 0 min 0,8 UV-I 130 W/m 11,3 C 13,8 C 12,9 km/h (3 Bft)
14.10.2021 13:48 13,8 C 15,6 C 11,7 C 84 % 1021,9 hPa 0,0 l/m 7,2 km/h (2 Bft) N 354 0 min 0,7 UV-I 93 W/m 11,1 C 13,8 C 14,5 km/h (3 Bft)
14.10.2021 13:50 13,8 C 15,0 C 12,2 C 84 % 1021,9 hPa 0,0 l/m 9,2 km/h (2 Bft) N-NW 330 0 min 0,8 UV-I 104 W/m 11,1 C 13,8 C 16,1 km/h (3 Bft)
14.10.2021 13:52 13,7 C 15,0 C 11,7 C 84 % 1021,9 hPa 0,0 l/m 6,9 km/h (2 Bft) NW 323 0 min 1,1 UV-I 167 W/m 11,0 C 13,7 C 11,3 km/h (2 Bft)
14.10.2021 13:54 13,7 C 15,6 C 11,7 C 84 % 1021,9 hPa 0,0 l/m 7,1 km/h (2 Bft) N-NW 339 0 min 1,1 UV-I 169 W/m 11,0 C 13,7 C 11,3 km/h (2 Bft)
14.10.2021 13:56 13,7 C 15,6 C 11,7 C 83 % 1021,9 hPa 0,0 l/m 7,0 km/h (2 Bft) NW 326 0 min 0,9 UV-I 137 W/m 10,9 C 13,7 C 12,9 km/h (3 Bft)
14.10.2021 13:58 13,8 C 15,0 C 12,2 C 83 % 1021,8 hPa 0,0 l/m 6,5 km/h (2 Bft) NW 323 0 min 0,9 UV-I 128 W/m 11,0 C 13,8 C 12,9 km/h (3 Bft)
14.10.2021 14:00 13,8 C 15,0 C 11,7 C 83 % 1021,8 hPa 0,0 l/m 2,4 km/h (1 Bft) W-SW 256 0 min 0,6 UV-I 86 W/m 11,0 C 13,8 C 4,8 km/h (1 Bft)
14.10.2021 14:02 13,8 C 15,0 C 11,7 C 83 % 1021,8 hPa 0,0 l/m 7,0 km/h (2 Bft) W 279 0 min 0,0 UV-I 54 W/m 11,0 C 13,8 C 14,5 km/h (3 Bft)
14.10.2021 14:04 13,7 C 14,4 C 12,2 C 83 % 1021,8 hPa 0,0 l/m 7,7 km/h (2 Bft) N-NW 348 0 min 0,6 UV-I 76 W/m 10,9 C 13,7 C 14,5 km/h (3 Bft)
14.10.2021 14:06 13,7 C 14,4 C 12,2 C 83 % 1021,8 hPa 0,0 l/m 5,0 km/h (1 Bft) NW 310 0 min 0,6 UV-I 67 W/m 10,9 C 13,7 C 11,3 km/h (2 Bft)
14.10.2021 14:08 13,7 C 13,9 C 12,2 C 83 % 1021,7 hPa 0,0 l/m 5,0 km/h (1 Bft) NW 318 0 min 0,6 UV-I 77 W/m 10,9 C 13,7 C 9,7 km/h (2 Bft)
14.10.2021 14:10 13,6 C 13,9 C 12,2 C 83 % 1021,7 hPa 0,0 l/m 8,0 km/h (2 Bft) N-NW 327 0 min 0,6 UV-I 72 W/m 10,8 C 13,6 C 11,3 km/h (2 Bft)
14.10.2021 14:12 13,6 C 13,9 C 12,2 C 83 % 1021,7 hPa 0,0 l/m 10,1 km/h (2 Bft) N-NW 346 0 min 0,7 UV-I 81 W/m 10,8 C 13,6 C 17,7 km/h (3 Bft)
14.10.2021 14:14 13,6 C 13,9 C 12,2 C 83 % 1021,7 hPa 0,0 l/m 6,8 km/h (2 Bft) W-NW 298 0 min 0,7 UV-I 93 W/m 10,8 C 13,6 C 12,9 km/h (3 Bft)
14.10.2021 14:16 13,6 C 13,9 C 12,2 C 83 % 1021,6 hPa 0,0 l/m 4,6 km/h (1 Bft) NW 326 0 min 0,7 UV-I 86 W/m 10,8 C 13,6 C 11,3 km/h (2 Bft)
14.10.2021 14:18 13,6 C 13,9 C 12,2 C 83 % 1021,6 hPa 0,0 l/m 3,2 km/h (1 Bft) N-NW 327 0 min 0,6 UV-I 81 W/m 10,8 C 13,6 C 6,4 km/h (2 Bft)
14.10.2021 14:20 13,6 C 14,4 C 12,2 C 83 % 1021,6 hPa 0,0 l/m 4,4 km/h (1 Bft) NW 323 0 min 0,5 UV-I 60 W/m 10,8 C 13,6 C 6,4 km/h (2 Bft)
14.10.2021 14:22 13,6 C 13,9 C 12,2 C 83 % 1021,6 hPa 0,0 l/m 5,0 km/h (1 Bft) NW 319 0 min 0,6 UV-I 69 W/m 10,8 C 13,6 C 12,9 km/h (3 Bft)
14.10.2021 14:24 13,6 C 13,9 C 12,2 C 83 % 1021,6 hPa 0,0 l/m 4,8 km/h (1 Bft) NW 306 0 min 0,6 UV-I 79 W/m 10,8 C 13,6 C 9,7 km/h (2 Bft)
14.10.2021 14:26 13,6 C 13,9 C 12,2 C 83 % 1021,6 hPa 0,0 l/m 5,4 km/h (2 Bft) N-NW 329 0 min 0,5 UV-I 70 W/m 10,8 C 13,6 C 11,3 km/h (2 Bft)
14.10.2021 14:28 13,6 C 13,9 C 12,2 C 83 % 1021,6 hPa 0,0 l/m 7,1 km/h (2 Bft) N 4 0 min 0,8 UV-I 116 W/m 10,8 C 13,6 C 9,7 km/h (2 Bft)
14.10.2021 14:30 13,6 C 14,4 C 12,2 C 83 % 1021,6 hPa 0,0 l/m 3,7 km/h (1 Bft) N-NW 340 0 min 0,8 UV-I 114 W/m 10,8 C 13,6 C 6,4 km/h (2 Bft)
14.10.2021 14:32 13,6 C 14,4 C 12,2 C 83 % 1021,6 hPa 0,0 l/m 3,6 km/h (1 Bft) N-NW 337 0 min 0,6 UV-I 63 W/m 10,8 C 13,6 C 8,0 km/h (2 Bft)
14.10.2021 14:34 13,6 C 14,4 C 12,2 C 84 % 1021,5 hPa 0,0 l/m 5,3 km/h (1 Bft) NW 325 0 min 0,6 UV-I 70 W/m 10,9 C 13,6 C 8,0 km/h (2 Bft)
14.10.2021 14:36 13,6 C 13,9 C 12,2 C 84 % 1021,5 hPa 0,0 l/m 4,3 km/h (1 Bft) N-NW 341 0 min 0,5 UV-I 63 W/m 10,9 C 13,6 C 6,4 km/h (2 Bft)
14.10.2021 14:38 13,6 C 14,4 C 12,2 C 83 % 1021,4 hPa 0,0 l/m 4,4 km/h (1 Bft) W-NW 298 0 min 0,7 UV-I 116 W/m 10,8 C 13,6 C 8,0 km/h (2 Bft)
14.10.2021 14:40 13,6 C 14,4 C 12,2 C 83 % 1021,4 hPa 0,0 l/m 4,3 km/h (1 Bft) N 350 0 min 0,8 UV-I 105 W/m 10,8 C 13,6 C 11,3 km/h (2 Bft)
14.10.2021 14:42 13,7 C 14,4 C 12,2 C 83 % 1021,4 hPa 0,0 l/m 2,3 km/h (1 Bft) NW 323 0 min 0,7 UV-I 100 W/m 10,9 C 13,7 C 4,8 km/h (1 Bft)
14.10.2021 14:44 13,7 C 14,4 C 12,2 C 83 % 1021,4 hPa 0,0 l/m 4,5 km/h (1 Bft) N-NW 327 0 min 0,6 UV-I 70 W/m 10,9 C 13,7 C 9,7 km/h (2 Bft)
14.10.2021 14:46 13,7 C 14,4 C 12,2 C 83 % 1021,4 hPa 0,0 l/m 4,8 km/h (1 Bft) NW 314 0 min 0,0 UV-I 53 W/m 10,9 C 13,7 C 8,0 km/h (2 Bft)
14.10.2021 14:48 13,7 C 14,4 C 12,2 C 84 % 1021,4 hPa 0,0 l/m 2,4 km/h (1 Bft) NW 325 0 min 0,0 UV-I 40 W/m 11,0 C 13,7 C 4,8 km/h (1 Bft)
14.10.2021 14:50 13,7 C 13,9 C 12,2 C 84 % 1021,4 hPa 0,0 l/m 1,9 km/h (1 Bft) W-NW 300 0 min 0,0 UV-I 21 W/m 11,0 C 13,7 C 4,8 km/h (1 Bft)
14.10.2021 14:52 13,6 C 13,9 C 12,2 C 84 % 1021,4 hPa 0,0 l/m 2,8 km/h (1 Bft) W-NW 300 0 min 0,0 UV-I 25 W/m 10,9 C 13,6 C 6,4 km/h (2 Bft)
14.10.2021 14:54 13,6 C 13,3 C 12,2 C 84 % 1021,4 hPa 0,0 l/m 1,9 km/h (1 Bft) N-NW 339 0 min 0,0 UV-I 30 W/m 10,9 C 13,6 C 4,8 km/h (1 Bft)
14.10.2021 14:56 13,6 C 13,3 C 12,2 C 84 % 1021,4 hPa 0,0 l/m 1,8 km/h (1 Bft) N-NW 339 0 min 0,0 UV-I 28 W/m 10,9 C 13,6 C 3,2 km/h (1 Bft)
14.10.2021 14:58 13,5 C 13,3 C 12,2 C 85 % 1021,4 hPa 0,0 l/m 3,3 km/h (1 Bft) W-NW 293 0 min 0,0 UV-I 39 W/m 11,0 C 13,5 C 6,4 km/h (2 Bft)
14.10.2021 15:00 13,5 C 12,8 C 12,2 C 84 % 1021,4 hPa 0,0 l/m 8,1 km/h (2 Bft) NW 311 0 min 0,0 UV-I 51 W/m 10,8 C 13,5 C 14,5 km/h (3 Bft)
14.10.2021 15:02 13,4 C 12,8 C 12,2 C 85 % 1021,4 hPa 0,0 l/m 5,7 km/h (2 Bft) N-NW 339 0 min 0,5 UV-I 63 W/m 10,9 C 13,4 C 11,3 km/h (2 Bft)
14.10.2021 15:04 13,3 C 12,8 C 12,2 C 85 % 1021,4 hPa 0,0 l/m 4,9 km/h (1 Bft) NW 307 0 min 0,5 UV-I 67 W/m 10,8 C 13,3 C 8,0 km/h (2 Bft)
14.10.2021 15:06 13,3 C 12,8 C 12,2 C 85 % 1021,4 hPa 0,0 l/m 5,4 km/h (2 Bft) W-NW 292 0 min 0,5 UV-I 76 W/m 10,8 C 13,3 C 8,0 km/h (2 Bft)
14.10.2021 15:08 13,3 C 12,8 C 12,2 C 86 % 1021,4 hPa 0,0 l/m 3,7 km/h (1 Bft) NW 312 0 min 0,6 UV-I 95 W/m 11,0 C 13,3 C 6,4 km/h (2 Bft)
14.10.2021 15:10 13,2 C 12,8 C 12,2 C 86 % 1021,4 hPa 0,0 l/m 8,3 km/h (2 Bft) W 276 0 min 0,7 UV-I 114 W/m 10,9 C 13,2 C 11,3 km/h (2 Bft)
14.10.2021 15:12 13,2 C 13,3 C 12,2 C 86 % 1021,4 hPa 0,0 l/m 7,8 km/h (2 Bft) NW 304 0 min 0,7 UV-I 118 W/m 10,9 C 13,2 C 14,5 km/h (3 Bft)
14.10.2021 15:14 13,2 C 13,3 C 12,2 C 86 % 1021,4 hPa 0,0 l/m 7,4 km/h (2 Bft) NW 319 0 min 0,7 UV-I 120 W/m 10,9 C 13,2 C 12,9 km/h (3 Bft)
14.10.2021 15:16 13,2 C 13,3 C 12,2 C 86 % 1021,4 hPa 0,0 l/m 9,1 km/h (2 Bft) NW 317 0 min 0,7 UV-I 127 W/m 10,9 C 13,2 C 19,3 km/h (3 Bft)
14.10.2021 15:18 13,2 C 13,3 C 12,2 C 86 % 1021,4 hPa 0,0 l/m 10,2 km/h (2 Bft) W-NW 287 0 min 0,6 UV-I 109 W/m 10,9 C 13,2 C 17,7 km/h (3 Bft)
14.10.2021 15:20 13,2 C 13,3 C 12,2 C 86 % 1021,4 hPa 0,0 l/m 6,8 km/h (2 Bft) NW 310 0 min 0,6 UV-I 98 W/m 10,9 C 13,2 C 12,9 km/h (3 Bft)
14.10.2021 15:22 13,2 C 13,3 C 12,2 C 86 % 1021,4 hPa 0,0 l/m 4,7 km/h (1 Bft) W-NW 284 0 min 0,6 UV-I 93 W/m 10,9 C 13,2 C 8,0 km/h (2 Bft)
14.10.2021 15:24 13,2 C 13,3 C 12,2 C 86 % 1021,3 hPa 0,0 l/m 3,7 km/h (1 Bft) NW 311 0 min 0,6 UV-I 93 W/m 10,9 C 13,2 C 6,4 km/h (2 Bft)
14.10.2021 15:26 13,2 C 13,3 C 12,2 C 86 % 1021,3 hPa 0,0 l/m 2,9 km/h (1 Bft) W-NW 303 0 min 0,6 UV-I 90 W/m 10,9 C 13,2 C 9,7 km/h (2 Bft)
14.10.2021 15:28 13,2 C 13,3 C 12,2 C 86 % 1021,3 hPa 0,0 l/m 4,6 km/h (1 Bft) W-NW 287 0 min 0,6 UV-I 95 W/m 10,9 C 13,2 C 11,3 km/h (2 Bft)
14.10.2021 15:30 13,2 C 13,3 C 12,2 C 86 % 1021,3 hPa 0,0 l/m 5,4 km/h (2 Bft) W 270 0 min 0,6 UV-I 109 W/m 10,9 C 13,2 C 11,3 km/h (2 Bft)
14.10.2021 15:32 13,2 C 13,3 C 12,2 C 86 % 1021,3 hPa 0,0 l/m 6,3 km/h (2 Bft) W-NW 288 0 min 0,6 UV-I 109 W/m 10,9 C 13,2 C 12,9 km/h (3 Bft)
14.10.2021 15:34 13,2 C 13,3 C 12,2 C 86 % 1021,3 hPa 0,0 l/m 6,1 km/h (2 Bft) NW 323 0 min 0,6 UV-I 104 W/m 10,9 C 13,2 C 11,3 km/h (2 Bft)
14.10.2021 15:36 13,2 C 13,3 C 12,2 C 86 % 1021,3 hPa 0,0 l/m 5,7 km/h (2 Bft) W-NW 294 0 min 0,6 UV-I 97 W/m 10,9 C 13,2 C 11,3 km/h (2 Bft)
14.10.2021 15:38 13,2 C 13,3 C 12,2 C 86 % 1021,4 hPa 0,0 l/m 4,7 km/h (1 Bft) W-NW 283 0 min 0,6 UV-I 91 W/m 10,9 C 13,2 C 9,7 km/h (2 Bft)
14.10.2021 15:40 13,2 C 13,3 C 12,2 C 86 % 1021,4 hPa 0,0 l/m 6,3 km/h (2 Bft) NW 313 0 min 0,6 UV-I 93 W/m 10,9 C 13,2 C 9,7 km/h (2 Bft)
14.10.2021 15:42 13,2 C 13,3 C 12,2 C 86 % 1021,3 hPa 0,0 l/m 6,0 km/h (2 Bft) W 277 0 min 0,6 UV-I 100 W/m 10,9 C 13,2 C 12,9 km/h (3 Bft)
14.10.2021 15:44 13,2 C 13,3 C 12,2 C 86 % 1021,3 hPa 0,0 l/m 6,1 km/h (2 Bft) W-NW 287 0 min 0,6 UV-I 100 W/m 10,9 C 13,2 C 11,3 km/h (2 Bft)
14.10.2021 15:46 13,2 C 13,9 C 12,2 C 86 % 1021,3 hPa 0,0 l/m 6,6 km/h (2 Bft) NW 307 0 min 0,5 UV-I 91 W/m 10,9 C 13,2 C 11,3 km/h (2 Bft)
14.10.2021 15:48 13,2 C 13,3 C 12,2 C 86 % 1021,3 hPa 0,0 l/m 6,0 km/h (2 Bft) W-NW 296 0 min 0,5 UV-I 70 W/m 10,9 C 13,2 C 9,7 km/h (2 Bft)
14.10.2021 15:50 13,2 C 13,3 C 12,2 C 86 % 1021,3 hPa 0,0 l/m 4,3 km/h (1 Bft) W 267 0 min 0,0 UV-I 63 W/m 10,9 C 13,2 C 6,4 km/h (2 Bft)
14.10.2021 15:52 13,2 C 13,3 C 12,2 C 85 % 1021,2 hPa 0,0 l/m 5,5 km/h (2 Bft) NW 310 0 min 0,0 UV-I 58 W/m 10,7 C 13,2 C 11,3 km/h (2 Bft)
14.10.2021 15:54 13,2 C 13,3 C 12,2 C 85 % 1021,2 hPa 0,0 l/m 4,9 km/h (1 Bft) NW 308 0 min 0,0 UV-I 62 W/m 10,7 C 13,2 C 12,9 km/h (3 Bft)
14.10.2021 15:56 13,2 C 13,3 C 12,2 C 85 % 1021,2 hPa 0,0 l/m 5,3 km/h (1 Bft) NW 310 0 min 0,5 UV-I 86 W/m 10,7 C 13,2 C 9,7 km/h (2 Bft)
14.10.2021 15:58 13,2 C 13,9 C 12,2 C 85 % 1021,1 hPa 0,0 l/m 8,1 km/h (2 Bft) W-SW 254 0 min 0,7 UV-I 167 W/m 10,7 C 13,2 C 12,9 km/h (3 Bft)
14.10.2021 16:00 13,2 C 14,4 C 12,2 C 85 % 1021,1 hPa 0,0 l/m 6,2 km/h (2 Bft) NW 315 2 min 0,8 UV-I 183 W/m 10,7 C 13,2 C 9,7 km/h (2 Bft)
14.10.2021 16:02 13,3 C 15,0 C 12,2 C 85 % 1021,0 hPa 0,0 l/m 6,8 km/h (2 Bft) NW 314 2 min 0,8 UV-I 206 W/m 10,8 C 13,3 C 12,9 km/h (3 Bft)
14.10.2021 16:04 13,4 C 15,0 C 12,2 C 85 % 1021,0 hPa 0,0 l/m 4,8 km/h (1 Bft) W-NW 283 2 min 0,8 UV-I 178 W/m 10,9 C 13,4 C 9,7 km/h (2 Bft)
14.10.2021 16:06 13,4 C 15,0 C 12,2 C 85 % 1021,0 hPa 0,0 l/m 5,4 km/h (2 Bft) W 262 0 min 0,7 UV-I 158 W/m 10,9 C 13,4 C 12,9 km/h (3 Bft)
14.10.2021 16:08 13,6 C 15,0 C 12,2 C 85 % 1021,1 hPa 0,0 l/m 3,6 km/h (1 Bft) W-NW 300 0 min 0,7 UV-I 139 W/m 11,1 C 13,6 C 8,0 km/h (2 Bft)
14.10.2021 16:10 13,6 C 15,0 C 12,2 C 85 % 1021,0 hPa 0,0 l/m 5,7 km/h (2 Bft) W 273 0 min 0,7 UV-I 146 W/m 11,1 C 13,6 C 9,7 km/h (2 Bft)
14.10.2021 16:12 13,6 C 15,0 C 12,2 C 84 % 1021,0 hPa 0,0 l/m 6,2 km/h (2 Bft) W-NW 302 0 min 0,7 UV-I 132 W/m 10,9 C 13,6 C 11,3 km/h (2 Bft)
14.10.2021 16:14 13,6 C 15,0 C 12,2 C 84 % 1021,0 hPa 0,0 l/m 7,5 km/h (2 Bft) W-NW 297 0 min 0,6 UV-I 121 W/m 10,9 C 13,6 C 11,3 km/h (2 Bft)
14.10.2021 16:16 13,5 C 15,0 C 12,2 C 84 % 1021,0 hPa 0,0 l/m 5,1 km/h (1 Bft) W 259 0 min 0,6 UV-I 116 W/m 10,8 C 13,5 C 9,7 km/h (2 Bft)
14.10.2021 16:18 13,5 C 14,4 C 12,2 C 84 % 1021,0 hPa 0,0 l/m 5,6 km/h (2 Bft) W-NW 302 0 min 0,5 UV-I 90 W/m 10,8 C 13,5 C 12,9 km/h (3 Bft)
14.10.2021 16:20 13,5 C 14,4 C 12,2 C 84 % 1020,9 hPa 0,0 l/m 5,9 km/h (2 Bft) W-SW 243 0 min 0,0 UV-I 67 W/m 10,8 C 13,5 C 9,7 km/h (2 Bft)
14.10.2021 16:22 13,4 C 13,9 C 12,2 C 84 % 1020,9 hPa 0,0 l/m 6,2 km/h (2 Bft) W-NW 292 0 min 0,0 UV-I 62 W/m 10,8 C 13,4 C 11,3 km/h (2 Bft)
14.10.2021 16:24 13,4 C 13,9 C 12,2 C 84 % 1020,9 hPa 0,0 l/m 5,8 km/h (2 Bft) W-NW 301 0 min 0,0 UV-I 42 W/m 10,8 C 13,4 C 9,7 km/h (2 Bft)
14.10.2021 16:26 13,4 C 13,3 C 12,2 C 84 % 1020,9 hPa 0,0 l/m 4,9 km/h (1 Bft) W-NW 298 0 min 0,0 UV-I 39 W/m 10,8 C 13,4 C 9,7 km/h (2 Bft)
14.10.2021 16:28 13,4 C 13,3 C 12,2 C 84 % 1020,9 hPa 0,0 l/m 5,5 km/h (2 Bft) W-NW 302 0 min 0,0 UV-I 40 W/m 10,8 C 13,4 C 9,7 km/h (2 Bft)
14.10.2021 16:30 13,3 C 13,3 C 12,2 C 84 % 1020,9 hPa 0,0 l/m 8,4 km/h (2 Bft) W-NW 283 0 min 0,0 UV-I 28 W/m 10,7 C 13,3 C 12,9 km/h (3 Bft)
14.10.2021 16:32 13,3 C 13,3 C 12,2 C 84 % 1020,9 hPa 0,0 l/m 6,9 km/h (2 Bft) NW 314 0 min 0,0 UV-I 26 W/m 10,7 C 13,3 C 14,5 km/h (3 Bft)
14.10.2021 16:34 13,3 C 13,3 C 12,2 C 84 % 1020,9 hPa 0,0 l/m 5,5 km/h (2 Bft) W-NW 302 0 min 0,0 UV-I 26 W/m 10,7 C 13,3 C 9,7 km/h (2 Bft)
14.10.2021 16:36 13,3 C 13,3 C 12,2 C 84 % 1020,9 hPa 0,0 l/m 5,8 km/h (2 Bft) W-NW 296 0 min 0,0 UV-I 28 W/m 10,7 C 13,3 C 12,9 km/h (3 Bft)
14.10.2021 16:38 13,3 C 12,8 C 12,2 C 84 % 1020,9 hPa 0,0 l/m 5,9 km/h (2 Bft) W-NW 285 0 min 0,0 UV-I 25 W/m 10,7 C 13,3 C 9,7 km/h (2 Bft)
14.10.2021 16:40 13,3 C 12,8 C 12,2 C 84 % 1020,9 hPa 0,0 l/m 5,6 km/h (2 Bft) W-NW 294 0 min 0,0 UV-I 25 W/m 10,7 C 13,3 C 9,7 km/h (2 Bft)
14.10.2021 16:42 13,3 C 12,8 C 12,2 C 84 % 1020,9 hPa 0,0 l/m 6,5 km/h (2 Bft) NW 306 0 min 0,0 UV-I 25 W/m 10,7 C 13,3 C 11,3 km/h (2 Bft)
14.10.2021 16:44 13,2 C 12,8 C 12,2 C 84 % 1020,9 hPa 0,0 l/m 5,8 km/h (2 Bft) W 273 0 min 0,0 UV-I 21 W/m 10,6 C 13,2 C 11,3 km/h (2 Bft)
14.10.2021 16:46 13,2 C 12,8 C 12,2 C 84 % 1020,9 hPa 0,0 l/m 6,0 km/h (2 Bft) W-NW 293 0 min 0,0 UV-I 23 W/m 10,6 C 13,2 C 8,0 km/h (2 Bft)
14.10.2021 16:48 13,2 C 12,8 C 12,2 C 84 % 1020,9 hPa 0,0 l/m 4,2 km/h (1 Bft) NW 304 0 min 0,0 UV-I 25 W/m 10,6 C 13,2 C 8,0 km/h (2 Bft)
14.10.2021 16:50 13,2 C 12,8 C 12,2 C 84 % 1020,9 hPa 0,0 l/m 4,2 km/h (1 Bft) W 262 0 min 0,0 UV-I 26 W/m 10,6 C 13,2 C 6,4 km/h (2 Bft)
14.10.2021 16:52 13,1 C 12,8 C 12,2 C 84 % 1020,9 hPa 0,0 l/m 4,6 km/h (1 Bft) W-NW 291 0 min 0,0 UV-I 25 W/m 10,5 C 13,1 C 8,0 km/h (2 Bft)
14.10.2021 16:54 13,1 C 12,8 C 12,2 C 84 % 1020,8 hPa 0,0 l/m 4,6 km/h (1 Bft) W-NW 288 0 min 0,0 UV-I 26 W/m 10,5 C 13,1 C 8,0 km/h (2 Bft)
14.10.2021 16:56 13,1 C 12,8 C 12,2 C 85 % 1020,8 hPa 0,0 l/m 3,8 km/h (1 Bft) W 260 0 min 0,0 UV-I 28 W/m 10,6 C 13,1 C 6,4 km/h (2 Bft)
14.10.2021 16:58 13,1 C 12,8 C 12,2 C 85 % 1020,8 hPa 0,0 l/m 4,6 km/h (1 Bft) W 280 0 min 0,0 UV-I 37 W/m 10,6 C 13,1 C 8,0 km/h (2 Bft)
14.10.2021 17:00 13,1 C 12,8 C 12,8 C 85 % 1020,8 hPa 0,0 l/m 4,2 km/h (1 Bft) W 269 0 min 0,0 UV-I 33 W/m 10,6 C 13,1 C 8,0 km/h (2 Bft)
14.10.2021 17:02 13,0 C 12,8 C 12,2 C 85 % 1020,8 hPa 0,0 l/m 4,9 km/h (1 Bft) NW 321 0 min 0,0 UV-I 28 W/m 10,5 C 13,0 C 9,7 km/h (2 Bft)
14.10.2021 17:04 13,0 C 12,8 C 12,2 C 85 % 1020,8 hPa 0,0 l/m 2,4 km/h (1 Bft) W 276 0 min 0,0 UV-I 28 W/m 10,5 C 13,0 C 4,8 km/h (1 Bft)
14.10.2021 17:06 13,0 C 12,8 C 12,2 C 85 % 1020,8 hPa 0,0 l/m 3,1 km/h (1 Bft) W 279 0 min 0,0 UV-I 30 W/m 10,5 C 13,0 C 4,8 km/h (1 Bft)
14.10.2021 17:08 13,0 C 12,8 C 12,2 C 85 % 1020,8 hPa 0,0 l/m 2,2 km/h (1 Bft) W 279 0 min 0,0 UV-I 25 W/m 10,5 C 13,0 C 4,8 km/h (1 Bft)
14.10.2021 17:10 13,0 C 12,8 C 12,2 C 85 % 1020,8 hPa 0,0 l/m 2,8 km/h (1 Bft) W 275 0 min 0,0 UV-I 18 W/m 10,5 C 13,0 C 6,4 km/h (2 Bft)
14.10.2021 17:12 13,0 C 12,8 C 12,2 C 85 % 1020,8 hPa 0,0 l/m 1,9 km/h (1 Bft) W 279 0 min 0,0 UV-I 21 W/m 10,5 C 13,0 C 3,2 km/h (1 Bft)
14.10.2021 17:14 12,9 C 12,8 C 12,8 C 86 % 1020,8 hPa 0,0 l/m 2,6 km/h (1 Bft) W-NW 291 0 min 0,0 UV-I 14 W/m 10,6 C 12,9 C 4,8 km/h (1 Bft)
14.10.2021 17:16 12,9 C 12,8 C 12,2 C 86 % 1020,8 hPa 0,0 l/m 4,7 km/h (1 Bft) W-NW 298 0 min 0,0 UV-I 9 W/m 10,6 C 12,9 C 9,7 km/h (2 Bft)
14.10.2021 17:18 12,9 C 12,8 C 12,2 C 86 % 1020,8 hPa 0,0 l/m 4,0 km/h (1 Bft) W-NW 295 0 min 0,0 UV-I 11 W/m 10,6 C 12,9 C 9,7 km/h (2 Bft)
14.10.2021 17:20 12,9 C 12,2 C 12,2 C 86 % 1020,8 hPa 0,0 l/m 4,3 km/h (1 Bft) W-NW 292 0 min 0,0 UV-I 12 W/m 10,6 C 12,9 C 8,0 km/h (2 Bft)
14.10.2021 17:22 12,9 C 12,2 C 12,2 C 86 % 1020,8 hPa 0,0 l/m 2,5 km/h (1 Bft) W-NW 292 0 min 0,0 UV-I 21 W/m 10,6 C 12,9 C 4,8 km/h (1 Bft)
14.10.2021 17:24 12,9 C 12,2 C 12,2 C 86 % 1020,8 hPa 0,0 l/m 2,5 km/h (1 Bft) NW 311 0 min 0,0 UV-I 21 W/m 10,6 C 12,9 C 6,4 km/h (2 Bft)
14.10.2021 17:26 12,8 C 12,2 C 12,2 C 86 % 1020,8 hPa 0,0 l/m 3,0 km/h (1 Bft) N-NW 332 0 min 0,0 UV-I 18 W/m 10,5 C 12,8 C 6,4 km/h (2 Bft)
14.10.2021 17:28 12,8 C 12,2 C 12,8 C 86 % 1020,8 hPa 0,0 l/m 1,8 km/h (1 Bft) NW 323 0 min 0,0 UV-I 14 W/m 10,5 C 12,8 C 4,8 km/h (1 Bft)
14.10.2021 17:30 12,8 C 11,7 C 12,2 C 86 % 1020,8 hPa 0,0 l/m 3,7 km/h (1 Bft) NW 319 0 min 0,0 UV-I 14 W/m 10,5 C 12,8 C 8,0 km/h (2 Bft)
14.10.2021 17:32 12,8 C 11,7 C 12,2 C 86 % 1020,8 hPa 0,0 l/m 2,1 km/h (1 Bft) N-NW 327 0 min 0,0 UV-I 12 W/m 10,5 C 12,8 C 4,8 km/h (1 Bft)
14.10.2021 17:34 12,8 C 11,7 C 12,2 C 86 % 1020,8 hPa 0,0 l/m 5,5 km/h (2 Bft) N 358 0 min 0,0 UV-I 7 W/m 10,5 C 12,8 C 8,0 km/h (2 Bft)
14.10.2021 17:36 12,7 C 11,7 C 12,2 C 86 % 1020,9 hPa 0,0 l/m 4,6 km/h (1 Bft) N-NW 327 0 min 0,0 UV-I 5 W/m 10,4 C 12,7 C 8,0 km/h (2 Bft)
14.10.2021 17:38 12,7 C 11,7 C 12,2 C 85 % 1020,8 hPa 0,0 l/m 5,9 km/h (2 Bft) NW 323 0 min 0,0 UV-I 5 W/m 10,2 C 12,7 C 12,9 km/h (3 Bft)
14.10.2021 17:40 12,6 C 11,7 C 12,2 C 85 % 1020,9 hPa 0,0 l/m 3,1 km/h (1 Bft) N-NW 328 0 min 0,0 UV-I 7 W/m 10,1 C 12,6 C 4,8 km/h (1 Bft)
14.10.2021 17:42 12,5 C 11,7 C 12,8 C 85 % 1020,9 hPa 0,0 l/m 6,5 km/h (2 Bft) NW 316 0 min 0,0 UV-I 7 W/m 10,0 C 12,5 C 14,5 km/h (3 Bft)
14.10.2021 17:44 12,5 C 11,1 C 12,8 C 85 % 1020,8 hPa 0,2 l/m 7,9 km/h (2 Bft) N-NW 348 0 min 0,0 UV-I 9 W/m 10,0 C 12,5 C 12,9 km/h (3 Bft)
14.10.2021 17:46 12,4 C 11,1 C 12,2 C 84 % 1020,8 hPa 0,0 l/m 3,3 km/h (1 Bft) N-NW 335 0 min 0,0 UV-I 11 W/m 9,8 C 12,4 C 8,0 km/h (2 Bft)
14.10.2021 17:48 12,4 C 11,1 C 12,2 C 84 % 1020,7 hPa 0,0 l/m 3,8 km/h (1 Bft) NW 319 0 min 0,0 UV-I 11 W/m 9,8 C 12,4 C 8,0 km/h (2 Bft)
14.10.2021 17:50 12,3 C 11,1 C 12,2 C 85 % 1020,7 hPa 0,0 l/m 4,4 km/h (1 Bft) NW 307 0 min 0,0 UV-I 9 W/m 9,9 C 12,3 C 6,4 km/h (2 Bft)
14.10.2021 17:52 12,3 C 11,1 C 12,2 C 85 % 1020,7 hPa 0,0 l/m 4,2 km/h (1 Bft) N-NW 348 0 min 0,0 UV-I 9 W/m 9,9 C 12,3 C 8,0 km/h (2 Bft)
14.10.2021 17:54 12,3 C 11,1 C 12,8 C 85 % 1020,7 hPa 0,0 l/m 3,7 km/h (1 Bft) NW 317 0 min 0,0 UV-I 7 W/m 9,9 C 12,3 C 8,0 km/h (2 Bft)
14.10.2021 17:56 12,2 C 11,1 C 12,2 C 84 % 1020,7 hPa 0,0 l/m 3,7 km/h (1 Bft) NW 320 0 min 0,0 UV-I 9 W/m 9,6 C 12,2 C 9,7 km/h (2 Bft)
14.10.2021 17:58 12,2 C 11,1 C 12,8 C 85 % 1020,7 hPa 0,0 l/m 3,8 km/h (1 Bft) N-NW 335 0 min 0,0 UV-I 9 W/m 9,8 C 12,2 C 6,4 km/h (2 Bft)
14.10.2021 18:00 12,2 C 11,1 C 12,2 C 85 % 1020,6 hPa 0,0 l/m 3,2 km/h (1 Bft) W 279 0 min 0,0 UV-I 7 W/m 9,8 C 12,2 C 6,4 km/h (2 Bft)
14.10.2021 18:02 12,1 C 11,1 C 12,8 C 85 % 1020,6 hPa 0,0 l/m 6,1 km/h (2 Bft) W-NW 297 0 min 0,0 UV-I 7 W/m 9,7 C 12,1 C 9,7 km/h (2 Bft)
14.10.2021 18:04 12,1 C 11,1 C 12,2 C 85 % 1020,6 hPa 0,0 l/m 5,1 km/h (1 Bft) W-NW 300 0 min 0,0 UV-I 5 W/m 9,7 C 12,1 C 8,0 km/h (2 Bft)
14.10.2021 18:06 12,1 C 11,1 C 12,8 C 85 % 1020,6 hPa 0,0 l/m 5,0 km/h (1 Bft) W 262 0 min 0,0 UV-I 5 W/m 9,7 C 12,1 C 8,0 km/h (2 Bft)
14.10.2021 18:08 12,0 C 11,1 C 12,2 C 86 % 1020,6 hPa 0,0 l/m 5,0 km/h (1 Bft) W-NW 292 0 min 0,0 UV-I 5 W/m 9,7 C 12,0 C 8,0 km/h (2 Bft)
14.10.2021 18:10 12,0 C 11,1 C 12,8 C 85 % 1020,6 hPa 0,0 l/m 3,7 km/h (1 Bft) W 265 0 min 0,0 UV-I 0 W/m 9,6 C 12,0 C 6,4 km/h (2 Bft)
14.10.2021 18:12 11,9 C 11,1 C 12,2 C 86 % 1020,6 hPa 0,0 l/m 3,0 km/h (1 Bft) W-NW 287 0 min 0,0 UV-I 0 W/m 9,6 C 11,9 C 6,4 km/h (2 Bft)
14.10.2021 18:14 11,9 C 11,1 C 12,2 C 86 % 1020,6 hPa 0,0 l/m 2,6 km/h (1 Bft) W 267 0 min 0,0 UV-I 0 W/m 9,6 C 11,9 C 6,4 km/h (2 Bft)
14.10.2021 18:16 11,9 C 10,6 C 12,8 C 86 % 1020,6 hPa 0,0 l/m 2,5 km/h (1 Bft) W-SW 255 0 min 0,0 UV-I 0 W/m 9,6 C 11,9 C 4,8 km/h (1 Bft)
14.10.2021 18:18 11,9 C 10,6 C 12,2 C 86 % 1020,6 hPa 0,0 l/m 1,8 km/h (1 Bft) W 262 0 min 0,0 UV-I 0 W/m 9,6 C 11,9 C 3,2 km/h (1 Bft)
14.10.2021 18:20 11,9 C 11,1 C 12,2 C 86 % 1020,6 hPa 0,0 l/m 0,4 km/h (0 Bft) W 269 0 min 0,0 UV-I 0 W/m 9,6 C 11,9 C 3,2 km/h (1 Bft)
14.10.2021 18:22 11,9 C 10,6 C 12,2 C 86 % 1020,6 hPa 0,0 l/m 1,0 km/h (0 Bft) NW 313 0 min 0,0 UV-I 0 W/m 9,6 C 11,9 C 3,2 km/h (1 Bft)
14.10.2021 18:24 11,9 C 10,6 C 12,2 C 86 % 1020,6 hPa 0,0 l/m 2,0 km/h (1 Bft) W 273 0 min 0,0 UV-I 0 W/m 9,6 C 11,9 C 4,8 km/h (1 Bft)
14.10.2021 18:26 11,9 C 10,6 C 12,8 C 87 % 1020,6 hPa 0,0 l/m 1,4 km/h (1 Bft) W 273 0 min 0,0 UV-I 0 W/m 9,8 C 11,9 C 3,2 km/h (1 Bft)
14.10.2021 18:28 11,8 C 10,6 C 12,8 C 87 % 1020,6 hPa 0,0 l/m 3,0 km/h (1 Bft) W 277 0 min 0,0 UV-I 0 W/m 9,7 C 11,8 C 4,8 km/h (1 Bft)
14.10.2021 18:30 11,8 C 10,6 C 12,8 C 87 % 1020,5 hPa 0,0 l/m 1,7 km/h (1 Bft) W 277 0 min 0,0 UV-I 0 W/m 9,7 C 11,8 C 3,2 km/h (1 Bft)
14.10.2021 18:32 11,8 C 10,6 C 12,2 C 87 % 1020,5 hPa 0,0 l/m 2,0 km/h (1 Bft) W 277 0 min 0,0 UV-I 0 W/m 9,7 C 11,8 C 4,8 km/h (1 Bft)
14.10.2021 18:34 11,8 C 10,6 C 12,2 C 87 % 1020,6 hPa 0,0 l/m 3,0 km/h (1 Bft) W 277 0 min 0,0 UV-I 0 W/m 9,7 C 11,8 C 4,8 km/h (1 Bft)
14.10.2021 18:36 11,8 C 10,6 C 12,2 C 87 % 1020,6 hPa 0,0 l/m 4,2 km/h (1 Bft) W 269 0 min 0,0 UV-I 0 W/m 9,7 C 11,8 C 8,0 km/h (2 Bft)
14.10.2021 18:38 11,8 C 10,6 C 12,2 C 87 % 1020,5 hPa 0,0 l/m 5,3 km/h (1 Bft) W 274 0 min 0,0 UV-I 0 W/m 9,7 C 11,8 C 8,0 km/h (2 Bft)
14.10.2021 18:40 11,8 C 10,6 C 12,8 C 87 % 1020,5 hPa 0,0 l/m 5,2 km/h (1 Bft) W 279 0 min 0,0 UV-I 0 W/m 9,7 C 11,8 C 8,0 km/h (2 Bft)
14.10.2021 18:42 11,8 C 10,6 C 12,8 C 87 % 1020,5 hPa 0,0 l/m 5,3 km/h (1 Bft) W 271 0 min 0,0 UV-I 0 W/m 9,7 C 11,8 C 9,7 km/h (2 Bft)
14.10.2021 18:44 11,8 C 11,1 C 12,8 C 87 % 1020,6 hPa 0,0 l/m 6,0 km/h (2 Bft) NW 310 0 min 0,0 UV-I 0 W/m 9,7 C 11,8 C 9,7 km/h (2 Bft)
14.10.2021 18:46 11,9 C 11,1 C 12,8 C 87 % 1020,5 hPa 0,0 l/m 6,1 km/h (2 Bft) W 267 0 min 0,0 UV-I 0 W/m 9,8 C 11,9 C 9,7 km/h (2 Bft)
14.10.2021 18:48 11,9 C 11,1 C 12,2 C 87 % 1020,5 hPa 0,0 l/m 6,5 km/h (2 Bft) W-NW 282 0 min 0,0 UV-I 0 W/m 9,8 C 11,9 C 11,3 km/h (2 Bft)
14.10.2021 18:50 11,9 C 11,1 C 12,8 C 87 % 1020,5 hPa 0,0 l/m 6,2 km/h (2 Bft) W-NW 294 0 min 0,0 UV-I 0 W/m 9,8 C 11,9 C 9,7 km/h (2 Bft)
14.10.2021 18:52 11,9 C 11,1 C 12,8 C 87 % 1020,5 hPa 0,0 l/m 4,8 km/h (1 Bft) W 269 0 min 0,0 UV-I 0 W/m 9,8 C 11,9 C 8,0 km/h (2 Bft)
14.10.2021 18:54 11,9 C 11,1 C 12,8 C 87 % 1020,5 hPa 0,0 l/m 5,6 km/h (2 Bft) W 260 0 min 0,0 UV-I 0 W/m 9,8 C 11,9 C 11,3 km/h (2 Bft)
14.10.2021 18:56 12,0 C 11,1 C 12,8 C 86 % 1020,5 hPa 0,0 l/m 6,1 km/h (2 Bft) W 276 0 min 0,0 UV-I 0 W/m 9,7 C 12,0 C 11,3 km/h (2 Bft)
14.10.2021 18:58 12,0 C 11,1 C 12,2 C 86 % 1020,4 hPa 0,0 l/m 6,1 km/h (2 Bft) W-NW 288 0 min 0,0 UV-I 0 W/m 9,7 C 12,0 C 11,3 km/h (2 Bft)
14.10.2021 19:00 12,0 C 11,1 C 12,2 C 86 % 1020,5 hPa 0,0 l/m 7,2 km/h (2 Bft) W 274 0 min 0,0 UV-I 0 W/m 9,7 C 12,0 C 12,9 km/h (3 Bft)
14.10.2021 19:02 12,0 C 11,1 C 12,8 C 86 % 1020,4 hPa 0,0 l/m 4,6 km/h (1 Bft) W 281 0 min 0,0 UV-I 0 W/m 9,7 C 12,0 C 8,0 km/h (2 Bft)
14.10.2021 19:04 12,1 C 11,1 C 12,2 C 86 % 1020,5 hPa 0,0 l/m 6,1 km/h (2 Bft) W-NW 284 0 min 0,0 UV-I 0 W/m 9,8 C 12,1 C 11,3 km/h (2 Bft)
14.10.2021 19:06 12,1 C 11,1 C 12,8 C 86 % 1020,4 hPa 0,0 l/m 5,5 km/h (2 Bft) W-NW 292 0 min 0,0 UV-I 0 W/m 9,8 C 12,1 C 12,9 km/h (3 Bft)
14.10.2021 19:08 12,0 C 11,1 C 12,2 C 86 % 1020,5 hPa 0,0 l/m 4,7 km/h (1 Bft) W-NW 292 0 min 0,0 UV-I 0 W/m 9,7 C 12,0 C 8,0 km/h (2 Bft)
14.10.2021 19:10 12,1 C 11,1 C 12,2 C 86 % 1020,4 hPa 0,0 l/m 6,7 km/h (2 Bft) W 265 0 min 0,0 UV-I 0 W/m 9,8 C 12,1 C 11,3 km/h (2 Bft)
14.10.2021 19:12 12,0 C 11,1 C 12,8 C 86 % 1020,5 hPa 0,0 l/m 5,0 km/h (1 Bft) W 275 0 min 0,0 UV-I 0 W/m 9,7 C 12,0 C 11,3 km/h (2 Bft)
14.10.2021 19:14 12,1 C 11,1 C 12,8 C 86 % 1020,5 hPa 0,0 l/m 5,1 km/h (1 Bft) W 281 0 min 0,0 UV-I 0 W/m 9,8 C 12,1 C 8,0 km/h (2 Bft)
14.10.2021 19:16 12,1 C 11,1 C 12,8 C 86 % 1020,5 hPa 0,0 l/m 5,8 km/h (2 Bft) W-NW 283 0 min 0,0 UV-I 0 W/m 9,8 C 12,1 C 9,7 km/h (2 Bft)
14.10.2021 19:18 12,1 C 10,6 C 12,8 C 85 % 1020,5 hPa 0,0 l/m 5,7 km/h (2 Bft) W 270 0 min 0,0 UV-I 0 W/m 9,7 C 12,1 C 8,0 km/h (2 Bft)
14.10.2021 19:20 12,1 C 10,6 C 12,2 C 85 % 1020,5 hPa 0,0 l/m 6,7 km/h (2 Bft) NW 308 0 min 0,0 UV-I 0 W/m 9,7 C 12,1 C 9,7 km/h (2 Bft)
14.10.2021 19:22 12,1 C 11,1 C 12,2 C 85 % 1020,5 hPa 0,0 l/m 6,9 km/h (2 Bft) W-NW 287 0 min 0,0 UV-I 0 W/m 9,7 C 12,1 C 11,3 km/h (2 Bft)
14.10.2021 19:24 12,1 C 11,1 C 12,2 C 85 % 1020,5 hPa 0,0 l/m 9,0 km/h (2 Bft) NW 307 0 min 0,0 UV-I 0 W/m 9,7 C 12,1 C 14,5 km/h (3 Bft)
14.10.2021 19:26 12,1 C 11,1 C 12,2 C 85 % 1020,5 hPa 0,0 l/m 5,7 km/h (2 Bft) W-NW 300 0 min 0,0 UV-I 0 W/m 9,7 C 12,1 C 9,7 km/h (2 Bft)
14.10.2021 19:28 12,1 C 11,1 C 12,8 C 85 % 1020,5 hPa 0,0 l/m 6,8 km/h (2 Bft) NW 308 0 min 0,0 UV-I 0 W/m 9,7 C 12,1 C 11,3 km/h (2 Bft)
14.10.2021 19:30 12,1 C 11,1 C 12,8 C 85 % 1020,5 hPa 0,0 l/m 9,0 km/h (2 Bft) W-NW 294 0 min 0,0 UV-I 0 W/m 9,7 C 12,1 C 16,1 km/h (3 Bft)
14.10.2021 19:32 12,1 C 11,1 C 12,2 C 85 % 1020,5 hPa 0,0 l/m 6,5 km/h (2 Bft) W 266 0 min 0,0 UV-I 0 W/m 9,7 C 12,1 C 11,3 km/h (2 Bft)
14.10.2021 19:34 12,1 C 11,1 C 12,2 C 85 % 1020,6 hPa 0,0 l/m 4,5 km/h (1 Bft) W-NW 285 0 min 0,0 UV-I 0 W/m 9,7 C 12,1 C 8,0 km/h (2 Bft)
14.10.2021 19:36 12,1 C 11,1 C 12,8 C 85 % 1020,5 hPa 0,0 l/m 4,5 km/h (1 Bft) W 260 0 min 0,0 UV-I 0 W/m 9,7 C 12,1 C 8,0 km/h (2 Bft)
14.10.2021 19:38 12,1 C 11,1 C 12,8 C 85 % 1020,5 hPa 0,0 l/m 9,1 km/h (2 Bft) W-NW 292 0 min 0,0 UV-I 0 W/m 9,7 C 12,1 C 16,1 km/h (3 Bft)
14.10.2021 19:40 12,1 C 11,1 C 12,8 C 85 % 1020,5 hPa 0,0 l/m 6,3 km/h (2 Bft) W-NW 299 0 min 0,0 UV-I 0 W/m 9,7 C 12,1 C 9,7 km/h (2 Bft)
14.10.2021 19:42 12,1 C 11,1 C 12,2 C 85 % 1020,5 hPa 0,0 l/m 5,6 km/h (2 Bft) W-NW 283 0 min 0,0 UV-I 0 W/m 9,7 C 12,1 C 9,7 km/h (2 Bft)
14.10.2021 19:44 12,1 C 11,1 C 12,8 C 85 % 1020,5 hPa 0,0 l/m 5,4 km/h (2 Bft) W-SW 252 0 min 0,0 UV-I 0 W/m 9,7 C 12,1 C 11,3 km/h (2 Bft)
14.10.2021 19:46 12,1 C 11,1 C 12,2 C 85 % 1020,5 hPa 0,0 l/m 7,3 km/h (2 Bft) W 271 0 min 0,0 UV-I 0 W/m 9,7 C 12,1 C 11,3 km/h (2 Bft)
14.10.2021 19:48 12,1 C 11,1 C 12,8 C 85 % 1020,4 hPa 0,0 l/m 6,2 km/h (2 Bft) W-NW 294 0 min 0,0 UV-I 0 W/m 9,7 C 12,1 C 11,3 km/h (2 Bft)
14.10.2021 19:50 12,1 C 11,1 C 12,8 C 85 % 1020,5 hPa 0,0 l/m 5,6 km/h (2 Bft) W 261 0 min 0,0 UV-I 0 W/m 9,7 C 12,1 C 9,7 km/h (2 Bft)
14.10.2021 19:52 12,1 C 11,1 C 12,8 C 85 % 1020,5 hPa 0,0 l/m 7,4 km/h (2 Bft) W-NW 299 0 min 0,0 UV-I 0 W/m 9,7 C 12,1 C 12,9 km/h (3 Bft)
14.10.2021 19:54 12,1 C 11,1 C 12,8 C 85 % 1020,5 hPa 0,0 l/m 7,2 km/h (2 Bft) W-NW 298 0 min 0,0 UV-I 0 W/m 9,7 C 12,1 C 16,1 km/h (3 Bft)
14.10.2021 19:56 12,0 C 11,1 C 12,8 C 86 % 1020,5 hPa 0,0 l/m 5,8 km/h (2 Bft) NW 310 0 min 0,0 UV-I 0 W/m 9,7 C 12,0 C 9,7 km/h (2 Bft)
14.10.2021 19:58 12,0 C 11,1 C 12,8 C 86 % 1020,4 hPa 0,0 l/m 4,5 km/h (1 Bft) W-NW 283 0 min 0,0 UV-I 0 W/m 9,7 C 12,0 C 8,0 km/h (2 Bft)
14.10.2021 20:00 12,0 C 11,1 C 12,2 C 86 % 1020,4 hPa 0,0 l/m 8,2 km/h (2 Bft) W 259 0 min 0,0 UV-I 0 W/m 9,7 C 12,0 C 11,3 km/h (2 Bft)
14.10.2021 20:02 12,0 C 11,1 C 12,8 C 86 % 1020,4 hPa 0,0 l/m 5,1 km/h (1 Bft) W-SW 249 0 min 0,0 UV-I 0 W/m 9,7 C 12,0 C 8,0 km/h (2 Bft)
14.10.2021 20:04 12,0 C 11,1 C 12,2 C 86 % 1020,4 hPa 0,0 l/m 6,3 km/h (2 Bft) W-SW 239 0 min 0,0 UV-I 0 W/m 9,7 C 12,0 C 11,3 km/h (2 Bft)
14.10.2021 20:06 11,9 C 11,1 C 12,2 C 86 % 1020,4 hPa 0,0 l/m 7,4 km/h (2 Bft) W-SW 252 0 min 0,0 UV-I 0 W/m 9,6 C 11,9 C 12,9 km/h (3 Bft)
14.10.2021 20:08 11,9 C 11,1 C 12,8 C 86 % 1020,4 hPa 0,0 l/m 7,1 km/h (2 Bft) W 269 0 min 0,0 UV-I 0 W/m 9,6 C 11,9 C 12,9 km/h (3 Bft)
14.10.2021 20:10 11,9 C 11,1 C 12,8 C 86 % 1020,4 hPa 0,0 l/m 6,5 km/h (2 Bft) W-SW 257 0 min 0,0 UV-I 0 W/m 9,6 C 11,9 C 11,3 km/h (2 Bft)
14.10.2021 20:12 11,9 C 11,1 C 12,8 C 86 % 1020,4 hPa 0,0 l/m 7,3 km/h (2 Bft) W 268 0 min 0,0 UV-I 0 W/m 9,6 C 11,9 C 11,3 km/h (2 Bft)
14.10.2021 20:14 11,9 C 11,1 C 12,2 C 86 % 1020,4 hPa 0,0 l/m 6,4 km/h (2 Bft) W-NW 289 0 min 0,0 UV-I 0 W/m 9,6 C 11,9 C 11,3 km/h (2 Bft)
14.10.2021 20:16 11,9 C 11,1 C 12,8 C 86 % 1020,4 hPa 0,0 l/m 8,1 km/h (2 Bft) W-SW 252 0 min 0,0 UV-I 0 W/m 9,6 C 11,9 C 12,9 km/h (3 Bft)
14.10.2021 20:18 11,9 C 11,1 C 12,2 C 86 % 1020,4 hPa 0,0 l/m 9,1 km/h (2 Bft) W-NW 283 0 min 0,0 UV-I 0 W/m 9,6 C 11,9 C 14,5 km/h (3 Bft)
14.10.2021 20:20 11,9 C 11,1 C 12,2 C 86 % 1020,3 hPa 0,0 l/m 8,0 km/h (2 Bft) W 276 0 min 0,0 UV-I 0 W/m 9,6 C 11,9 C 14,5 km/h (3 Bft)
14.10.2021 20:22 11,9 C 11,1 C 12,8 C 86 % 1020,4 hPa 0,0 l/m 7,2 km/h (2 Bft) W 260 0 min 0,0 UV-I 0 W/m 9,6 C 11,9 C 14,5 km/h (3 Bft)
14.10.2021 20:24 11,9 C 11,1 C 12,8 C 86 % 1020,4 hPa 0,0 l/m 7,1 km/h (2 Bft) W-NW 292 0 min 0,0 UV-I 0 W/m 9,6 C 11,9 C 16,1 km/h (3 Bft)
14.10.2021 20:26 11,9 C 11,1 C 12,8 C 86 % 1020,3 hPa 0,0 l/m 7,9 km/h (2 Bft) W-SW 247 0 min 0,0 UV-I 0 W/m 9,6 C 11,9 C 14,5 km/h (3 Bft)
14.10.2021 20:28 11,9 C 11,1 C 12,2 C 86 % 1020,3 hPa 0,0 l/m 8,8 km/h (2 Bft) W-SW 245 0 min 0,0 UV-I 0 W/m 9,6 C 11,9 C 12,9 km/h (3 Bft)
14.10.2021 20:30 11,9 C 11,1 C 12,8 C 86 % 1020,3 hPa 0,0 l/m 6,4 km/h (2 Bft) SW 230 0 min 0,0 UV-I 0 W/m 9,6 C 11,9 C 11,3 km/h (2 Bft)
14.10.2021 20:32 11,9 C 11,1 C 12,2 C 86 % 1020,3 hPa 0,0 l/m 6,7 km/h (2 Bft) W 275 0 min 0,0 UV-I 0 W/m 9,6 C 11,9 C 11,3 km/h (2 Bft)
14.10.2021 20:34 11,8 C 11,1 C 12,2 C 86 % 1020,3 hPa 0,0 l/m 8,0 km/h (2 Bft) W-NW 302 0 min 0,0 UV-I 0 W/m 9,5 C 11,8 C 12,9 km/h (3 Bft)
14.10.2021 20:36 11,8 C 11,1 C 12,8 C 86 % 1020,3 hPa 0,0 l/m 8,3 km/h (2 Bft) W-SW 255 0 min 0,0 UV-I 0 W/m 9,5 C 11,8 C 11,3 km/h (2 Bft)
14.10.2021 20:38 11,8 C 11,1 C 12,8 C 86 % 1020,3 hPa 0,0 l/m 9,1 km/h (2 Bft) W-SW 254 0 min 0,0 UV-I 0 W/m 9,5 C 11,8 C 14,5 km/h (3 Bft)
14.10.2021 20:40 11,8 C 11,1 C 12,8 C 86 % 1020,2 hPa 0,0 l/m 9,0 km/h (2 Bft) W 267 0 min 0,0 UV-I 0 W/m 9,5 C 11,8 C 16,1 km/h (3 Bft)
14.10.2021 20:42 11,8 C 11,1 C 12,8 C 86 % 1020,2 hPa 0,0 l/m 8,5 km/h (2 Bft) W 273 0 min 0,0 UV-I 0 W/m 9,5 C 11,8 C 14,5 km/h (3 Bft)
14.10.2021 20:44 11,8 C 11,1 C 12,8 C 86 % 1020,2 hPa 0,0 l/m 5,8 km/h (2 Bft) W-NW 287 0 min 0,0 UV-I 0 W/m 9,5 C 11,8 C 11,3 km/h (2 Bft)
14.10.2021 20:46 11,8 C 11,1 C 12,2 C 86 % 1020,2 hPa 0,0 l/m 5,8 km/h (2 Bft) W-NW 296 0 min 0,0 UV-I 0 W/m 9,5 C 11,8 C 9,7 km/h (2 Bft)
14.10.2021 20:48 11,8 C 11,1 C 12,2 C 86 % 1020,2 hPa 0,0 l/m 7,4 km/h (2 Bft) W-SW 254 0 min 0,0 UV-I 0 W/m 9,5 C 11,8 C 12,9 km/h (3 Bft)
14.10.2021 20:50 11,8 C 11,1 C 12,8 C 86 % 1020,2 hPa 0,0 l/m 8,0 km/h (2 Bft) W-NW 300 0 min 0,0 UV-I 0 W/m 9,5 C 11,8 C 17,7 km/h (3 Bft)
14.10.2021 20:52 11,8 C 11,1 C 12,8 C 86 % 1020,2 hPa 0,0 l/m 7,2 km/h (2 Bft) W 272 0 min 0,0 UV-I 0 W/m 9,5 C 11,8 C 14,5 km/h (3 Bft)
14.10.2021 20:54 11,8 C 11,1 C 12,8 C 86 % 1020,2 hPa 0,0 l/m 8,2 km/h (2 Bft) W-NW 292 0 min 0,0 UV-I 0 W/m 9,5 C 11,8 C 14,5 km/h (3 Bft)
14.10.2021 20:56 11,8 C 11,1 C 12,8 C 86 % 1020,2 hPa 0,0 l/m 6,3 km/h (2 Bft) W-NW 291 0 min 0,0 UV-I 0 W/m 9,5 C 11,8 C 14,5 km/h (3 Bft)
14.10.2021 20:58 11,8 C 11,1 C 12,8 C 86 % 1020,2 hPa 0,0 l/m 8,0 km/h (2 Bft) W-NW 292 0 min 0,0 UV-I 0 W/m 9,5 C 11,8 C 12,9 km/h (3 Bft)
14.10.2021 21:00 11,7 C 11,1 C 12,2 C 86 % 1020,3 hPa 0,0 l/m 5,7 km/h (2 Bft) NW 321 0 min 0,0 UV-I 0 W/m 9,4 C 11,7 C 11,3 km/h (2 Bft)
14.10.2021 21:02 11,7 C 11,1 C 12,8 C 86 % 1020,3 hPa 0,0 l/m 5,2 km/h (1 Bft) W 277 0 min 0,0 UV-I 0 W/m 9,4 C 11,7 C 12,9 km/h (3 Bft)
14.10.2021 21:04 11,7 C 11,1 C 12,2 C 86 % 1020,3 hPa 0,0 l/m 9,3 km/h (2 Bft) W 276 0 min 0,0 UV-I 0 W/m 9,4 C 11,7 C 16,1 km/h (3 Bft)
14.10.2021 21:06 11,7 C 11,1 C 12,8 C 86 % 1020,3 hPa 0,0 l/m 7,8 km/h (2 Bft) W-SW 256 0 min 0,0 UV-I 0 W/m 9,4 C 11,7 C 14,5 km/h (3 Bft)
14.10.2021 21:08 11,7 C 11,1 C 12,8 C 86 % 1020,2 hPa 0,0 l/m 7,9 km/h (2 Bft) W-NW 294 0 min 0,0 UV-I 0 W/m 9,4 C 11,7 C 14,5 km/h (3 Bft)
14.10.2021 21:10 11,7 C 11,1 C 12,8 C 86 % 1020,2 hPa 0,0 l/m 6,6 km/h (2 Bft) W-NW 283 0 min 0,0 UV-I 0 W/m 9,4 C 11,7 C 14,5 km/h (3 Bft)
14.10.2021 21:12 11,7 C 11,1 C 12,2 C 86 % 1020,2 hPa 0,0 l/m 7,6 km/h (2 Bft) W-SW 256 0 min 0,0 UV-I 0 W/m 9,4 C 11,7 C 12,9 km/h (3 Bft)
14.10.2021 21:14 11,7 C 11,1 C 12,8 C 86 % 1020,1 hPa 0,0 l/m 6,2 km/h (2 Bft) W 281 0 min 0,0 UV-I 0 W/m 9,4 C 11,7 C 12,9 km/h (3 Bft)
14.10.2021 21:16 11,7 C 11,1 C 12,8 C 86 % 1020,2 hPa 0,0 l/m 8,0 km/h (2 Bft) W 278 0 min 0,0 UV-I 0 W/m 9,4 C 11,7 C 12,9 km/h (3 Bft)
14.10.2021 21:18 11,7 C 11,1 C 12,8 C 86 % 1020,2 hPa 0,0 l/m 7,1 km/h (2 Bft) W-NW 296 0 min 0,0 UV-I 0 W/m 9,4 C 11,7 C 12,9 km/h (3 Bft)
14.10.2021 21:20 11,7 C 11,1 C 12,2 C 86 % 1020,2 hPa 0,0 l/m 6,9 km/h (2 Bft) NW 309 0 min 0,0 UV-I 0 W/m 9,4 C 11,7 C 12,9 km/h (3 Bft)
14.10.2021 21:22 11,7 C 11,1 C 12,8 C 86 % 1020,1 hPa 0,0 l/m 6,4 km/h (2 Bft) W-NW 298 0 min 0,0 UV-I 0 W/m 9,4 C 11,7 C 14,5 km/h (3 Bft)
14.10.2021 21:24 11,7 C 11,1 C 12,2 C 86 % 1020,1 hPa 0,0 l/m 7,8 km/h (2 Bft) W 273 0 min 0,0 UV-I 0 W/m 9,4 C 11,7 C 14,5 km/h (3 Bft)
14.10.2021 21:26 11,7 C 11,1 C 12,8 C 86 % 1020,1 hPa 0,0 l/m 6,2 km/h (2 Bft) W 267 0 min 0,0 UV-I 0 W/m 9,4 C 11,7 C 9,7 km/h (2 Bft)
14.10.2021 21:28 11,7 C 11,1 C 12,2 C 86 % 1020,1 hPa 0,0 l/m 9,0 km/h (2 Bft) W-NW 287 0 min 0,0 UV-I 0 W/m 9,4 C 11,7 C 14,5 km/h (3 Bft)
14.10.2021 21:30 11,7 C 11,1 C 12,2 C 86 % 1020,1 hPa 0,0 l/m 7,6 km/h (2 Bft) NW 313 0 min 0,0 UV-I 0 W/m 9,4 C 11,7 C 12,9 km/h (3 Bft)
14.10.2021 21:32 11,7 C 11,1 C 12,2 C 86 % 1020,1 hPa 0,0 l/m 7,1 km/h (2 Bft) NW 304 0 min 0,0 UV-I 0 W/m 9,4 C 11,7 C 12,9 km/h (3 Bft)
14.10.2021 21:34 11,7 C 11,1 C 12,2 C 86 % 1020,1 hPa 0,0 l/m 7,4 km/h (2 Bft) W-NW 288 0 min 0,0 UV-I 0 W/m 9,4 C 11,7 C 14,5 km/h (3 Bft)
14.10.2021 21:36 11,7 C 11,1 C 12,8 C 86 % 1020,1 hPa 0,0 l/m 6,6 km/h (2 Bft) W-NW 282 0 min 0,0 UV-I 0 W/m 9,4 C 11,7 C 9,7 km/h (2 Bft)
14.10.2021 21:38 11,7 C 11,1 C 12,2 C 86 % 1020,1 hPa 0,0 l/m 7,0 km/h (2 Bft) W-SW 243 0 min 0,0 UV-I 0 W/m 9,4 C 11,7 C 11,3 km/h (2 Bft)
14.10.2021 21:40 11,7 C 11,1 C 12,2 C 86 % 1020,1 hPa 0,0 l/m 7,2 km/h (2 Bft) W-SW 248 0 min 0,0 UV-I 0 W/m 9,4 C 11,7 C 12,9 km/h (3 Bft)
14.10.2021 21:42 11,6 C 11,1 C 12,2 C 86 % 1020,1 hPa 0,0 l/m 7,0 km/h (2 Bft) W 275 0 min 0,0 UV-I 0 W/m 9,3 C 11,6 C 11,3 km/h (2 Bft)
14.10.2021 21:44 11,6 C 11,1 C 12,8 C 86 % 1020,0 hPa 0,0 l/m 8,8 km/h (2 Bft) W 280 0 min 0,0 UV-I 0 W/m 9,3 C 11,6 C 12,9 km/h (3 Bft)
14.10.2021 21:46 11,6 C 11,1 C 12,8 C 86 % 1020,1 hPa 0,0 l/m 8,6 km/h (2 Bft) W-NW 293 0 min 0,0 UV-I 0 W/m 9,3 C 11,6 C 14,5 km/h (3 Bft)
14.10.2021 21:48 11,6 C 11,1 C 12,2 C 86 % 1020,0 hPa 0,0 l/m 7,3 km/h (2 Bft) W 267 0 min 0,0 UV-I 0 W/m 9,3 C 11,6 C 11,3 km/h (2 Bft)
14.10.2021 21:50 11,6 C 10,6 C 12,2 C 86 % 1020,0 hPa 0,0 l/m 7,3 km/h (2 Bft) W 271 0 min 0,0 UV-I 0 W/m 9,3 C 11,6 C 12,9 km/h (3 Bft)
14.10.2021 21:52 11,6 C 10,6 C 12,8 C 86 % 1020,0 hPa 0,0 l/m 5,8 km/h (2 Bft) W-SW 249 0 min 0,0 UV-I 0 W/m 9,3 C 11,6 C 14,5 km/h (3 Bft)
14.10.2021 21:54 11,5 C 10,6 C 12,2 C 86 % 1020,0 hPa 0,0 l/m 5,7 km/h (2 Bft) W-NW 292 0 min 0,0 UV-I 0 W/m 9,2 C 11,5 C 11,3 km/h (2 Bft)
14.10.2021 21:56 11,5 C 10,6 C 12,2 C 86 % 1020,0 hPa 0,0 l/m 5,7 km/h (2 Bft) W 279 0 min 0,0 UV-I 0 W/m 9,2 C 11,5 C 9,7 km/h (2 Bft)
14.10.2021 21:58 11,4 C 10,0 C 12,8 C 86 % 1020,0 hPa 0,0 l/m 6,9 km/h (2 Bft) W 267 0 min 0,0 UV-I 0 W/m 9,1 C 11,4 C 11,3 km/h (2 Bft)
14.10.2021 22:00 11,4 C 10,0 C 12,2 C 86 % 1020,0 hPa 0,0 l/m 5,6 km/h (2 Bft) W 265 0 min 0,0 UV-I 0 W/m 9,1 C 11,4 C 12,9 km/h (3 Bft)
14.10.2021 22:02 11,4 C 10,0 C 12,8 C 86 % 1020,0 hPa 0,0 l/m 6,5 km/h (2 Bft) W 271 0 min 0,0 UV-I 0 W/m 9,1 C 11,4 C 14,5 km/h (3 Bft)
14.10.2021 22:04 11,4 C 10,6 C 12,8 C 86 % 1019,9 hPa 0,0 l/m 7,1 km/h (2 Bft) W 273 0 min 0,0 UV-I 0 W/m 9,1 C 11,4 C 12,9 km/h (3 Bft)
14.10.2021 22:06 11,3 C 10,6 C 12,8 C 86 % 1020,0 hPa 0,0 l/m 6,6 km/h (2 Bft) W 260 0 min 0,0 UV-I 0 W/m 9,0 C 11,3 C 11,3 km/h (2 Bft)
14.10.2021 22:08 11,4 C 10,0 C 12,2 C 86 % 1019,9 hPa 0,0 l/m 5,7 km/h (2 Bft) W 274 0 min 0,0 UV-I 0 W/m 9,1 C 11,4 C 11,3 km/h (2 Bft)
14.10.2021 22:10 11,3 C 10,0 C 12,8 C 86 % 1020,0 hPa 0,0 l/m 8,8 km/h (2 Bft) W 280 0 min 0,0 UV-I 0 W/m 9,0 C 11,3 C 14,5 km/h (3 Bft)
14.10.2021 22:12 11,3 C 10,6 C 12,2 C 86 % 1019,9 hPa 0,0 l/m 6,3 km/h (2 Bft) W 269 0 min 0,0 UV-I 0 W/m 9,0 C 11,3 C 12,9 km/h (3 Bft)
14.10.2021 22:14 11,3 C 10,6 C 12,2 C 86 % 1019,9 hPa 0,0 l/m 5,9 km/h (2 Bft) W 271 0 min 0,0 UV-I 0 W/m 9,0 C 11,3 C 11,3 km/h (2 Bft)
14.10.2021 22:16 11,3 C 10,6 C 12,2 C 86 % 1019,9 hPa 0,0 l/m 6,9 km/h (2 Bft) W 265 0 min 0,0 UV-I 0 W/m 9,0 C 11,3 C 11,3 km/h (2 Bft)
14.10.2021 22:18 11,3 C 10,6 C 12,8 C 86 % 1019,9 hPa 0,0 l/m 7,3 km/h (2 Bft) SW 235 0 min 0,0 UV-I 0 W/m 9,0 C 11,3 C 11,3 km/h (2 Bft)
14.10.2021 22:20 11,3 C 10,6 C 12,2 C 86 % 1020,0 hPa 0,0 l/m 8,3 km/h (2 Bft) W-SW 257 0 min 0,0 UV-I 0 W/m 9,0 C 11,3 C 14,5 km/h (3 Bft)
14.10.2021 22:22 11,3 C 10,6 C 12,8 C 86 % 1019,9 hPa 0,0 l/m 6,1 km/h (2 Bft) W 266 0 min 0,0 UV-I 0 W/m 9,0 C 11,3 C 9,7 km/h (2 Bft)
14.10.2021 22:24 11,3 C 10,6 C 12,8 C 86 % 1019,9 hPa 0,0 l/m 5,7 km/h (2 Bft) W 269 0 min 0,0 UV-I 0 W/m 9,0 C 11,3 C 11,3 km/h (2 Bft)
14.10.2021 22:26 11,3 C 10,6 C 12,8 C 86 % 1019,9 hPa 0,0 l/m 8,4 km/h (2 Bft) W-SW 254 0 min 0,0 UV-I 0 W/m 9,0 C 11,3 C 14,5 km/h (3 Bft)
14.10.2021 22:28 11,3 C 10,6 C 12,8 C 86 % 1019,9 hPa 0,0 l/m 6,4 km/h (2 Bft) W-NW 287 0 min 0,0 UV-I 0 W/m 9,0 C 11,3 C 14,5 km/h (3 Bft)
14.10.2021 22:30 11,3 C 10,6 C 12,2 C 86 % 1019,9 hPa 0,0 l/m 7,6 km/h (2 Bft) W-SW 257 0 min 0,0 UV-I 0 W/m 9,0 C 11,3 C 12,9 km/h (3 Bft)
14.10.2021 22:32 11,3 C 10,6 C 12,8 C 86 % 1019,8 hPa 0,0 l/m 7,4 km/h (2 Bft) W 269 0 min 0,0 UV-I 0 W/m 9,0 C 11,3 C 11,3 km/h (2 Bft)
14.10.2021 22:34 11,4 C 10,6 C 12,8 C 86 % 1019,8 hPa 0,0 l/m 5,4 km/h (2 Bft) W 269 0 min 0,0 UV-I 0 W/m 9,1 C 11,4 C 9,7 km/h (2 Bft)
14.10.2021 22:36 11,3 C 10,6 C 12,2 C 86 % 1019,8 hPa 0,0 l/m 6,0 km/h (2 Bft) W-NW 290 0 min 0,0 UV-I 0 W/m 9,0 C 11,3 C 11,3 km/h (2 Bft)
14.10.2021 22:38 11,4 C 10,6 C 12,8 C 86 % 1019,9 hPa 0,0 l/m 5,9 km/h (2 Bft) W 260 0 min 0,0 UV-I 0 W/m 9,1 C 11,4 C 9,7 km/h (2 Bft)
14.10.2021 22:40 11,4 C 10,6 C 12,8 C 86 % 1019,8 hPa 0,0 l/m 6,1 km/h (2 Bft) W 272 0 min 0,0 UV-I 0 W/m 9,1 C 11,4 C 11,3 km/h (2 Bft)
14.10.2021 22:42 11,4 C 10,6 C 12,2 C 86 % 1019,9 hPa 0,0 l/m 6,3 km/h (2 Bft) W 281 0 min 0,0 UV-I 0 W/m 9,1 C 11,4 C 14,5 km/h (3 Bft)
14.10.2021 22:44 11,4 C 10,6 C 12,8 C 86 % 1019,9 hPa 0,0 l/m 6,5 km/h (2 Bft) W-NW 293 0 min 0,0 UV-I 0 W/m 9,1 C 11,4 C 11,3 km/h (2 Bft)
14.10.2021 22:46 11,4 C 11,1 C 12,2 C 86 % 1019,9 hPa 0,0 l/m 6,4 km/h (2 Bft) W-SW 254 0 min 0,0 UV-I 0 W/m 9,1 C 11,4 C 11,3 km/h (2 Bft)
14.10.2021 22:48 11,4 C 11,1 C 12,2 C 86 % 1019,9 hPa 0,0 l/m 5,8 km/h (2 Bft) W 276 0 min 0,0 UV-I 0 W/m 9,1 C 11,4 C 8,0 km/h (2 Bft)
14.10.2021 22:50 11,5 C 11,1 C 12,2 C 86 % 1019,9 hPa 0,0 l/m 5,5 km/h (2 Bft) W-SW 258 0 min 0,0 UV-I 0 W/m 9,2 C 11,5 C 9,7 km/h (2 Bft)
14.10.2021 22:52 11,5 C 11,1 C 12,2 C 86 % 1019,8 hPa 0,0 l/m 6,9 km/h (2 Bft) W 281 0 min 0,0 UV-I 0 W/m 9,2 C 11,5 C 9,7 km/h (2 Bft)
14.10.2021 22:54 11,4 C 11,1 C 12,2 C 86 % 1019,9 hPa 0,0 l/m 7,3 km/h (2 Bft) W 271 0 min 0,0 UV-I 0 W/m 9,1 C 11,4 C 12,9 km/h (3 Bft)
14.10.2021 22:56 11,5 C 11,1 C 12,8 C 86 % 1019,9 hPa 0,0 l/m 6,2 km/h (2 Bft) SW 219 0 min 0,0 UV-I 0 W/m 9,2 C 11,5 C 12,9 km/h (3 Bft)
14.10.2021 22:58 11,5 C 11,1 C 12,2 C 86 % 1019,8 hPa 0,0 l/m 6,4 km/h (2 Bft) W-NW 294 0 min 0,0 UV-I 0 W/m 9,2 C 11,5 C 11,3 km/h (2 Bft)
14.10.2021 23:00 11,5 C 10,6 C 12,2 C 86 % 1019,8 hPa 0,0 l/m 5,7 km/h (2 Bft) W 268 0 min 0,0 UV-I 0 W/m 9,2 C 11,5 C 8,0 km/h (2 Bft)
14.10.2021 23:02 11,5 C 10,6 C 12,2 C 86 % 1019,8 hPa 0,0 l/m 6,6 km/h (2 Bft) W-NW 303 0 min 0,0 UV-I 0 W/m 9,2 C 11,5 C 9,7 km/h (2 Bft)
14.10.2021 23:04 11,4 C 10,6 C 12,2 C 86 % 1019,8 hPa 0,0 l/m 7,6 km/h (2 Bft) W 277 0 min 0,0 UV-I 0 W/m 9,1 C 11,4 C 11,3 km/h (2 Bft)
14.10.2021 23:06 11,5 C 10,6 C 12,2 C 86 % 1019,8 hPa 0,0 l/m 5,4 km/h (2 Bft) W-SW 247 0 min 0,0 UV-I 0 W/m 9,2 C 11,5 C 9,7 km/h (2 Bft)
14.10.2021 23:08 11,4 C 10,6 C 12,2 C 86 % 1019,8 hPa 0,0 l/m 7,9 km/h (2 Bft) W 268 0 min 0,0 UV-I 0 W/m 9,1 C 11,4 C 12,9 km/h (3 Bft)
14.10.2021 23:10 11,4 C 10,6 C 12,2 C 86 % 1019,7 hPa 0,0 l/m 5,9 km/h (2 Bft) W 277 0 min 0,0 UV-I 0 W/m 9,1 C 11,4 C 11,3 km/h (2 Bft)
14.10.2021 23:12 11,5 C 10,6 C 12,2 C 86 % 1019,7 hPa 0,0 l/m 7,2 km/h (2 Bft) W-NW 285 0 min 0,0 UV-I 0 W/m 9,2 C 11,5 C 14,5 km/h (3 Bft)
14.10.2021 23:14 11,4 C 10,6 C 12,2 C 86 % 1019,7 hPa 0,0 l/m 5,6 km/h (2 Bft) W-NW 288 0 min 0,0 UV-I 0 W/m 9,1 C 11,4 C 12,9 km/h (3 Bft)
14.10.2021 23:16 11,4 C 10,6 C 12,2 C 86 % 1019,7 hPa 0,0 l/m 7,6 km/h (2 Bft) W-SW 252 0 min 0,0 UV-I 0 W/m 9,1 C 11,4 C 11,3 km/h (2 Bft)
14.10.2021 23:18 11,4 C 11,1 C 12,2 C 86 % 1019,7 hPa 0,0 l/m 6,4 km/h (2 Bft) W 274 0 min 0,0 UV-I 0 W/m 9,1 C 11,4 C 11,3 km/h (2 Bft)
14.10.2021 23:20 11,4 C 11,1 C 12,2 C 86 % 1019,6 hPa 0,0 l/m 4,6 km/h (1 Bft) W 264 0 min 0,0 UV-I 0 W/m 9,1 C 11,4 C 8,0 km/h (2 Bft)
14.10.2021 23:22 11,4 C 10,6 C 12,2 C 86 % 1019,6 hPa 0,0 l/m 5,0 km/h (1 Bft) W-SW 249 0 min 0,0 UV-I 0 W/m 9,1 C 11,4 C 11,3 km/h (2 Bft)
14.10.2021 23:24 11,4 C 10,6 C 12,8 C 86 % 1019,5 hPa 0,0 l/m 8,4 km/h (2 Bft) W 272 0 min 0,0 UV-I 0 W/m 9,1 C 11,4 C 11,3 km/h (2 Bft)
14.10.2021 23:26 11,4 C 10,6 C 12,2 C 86 % 1019,5 hPa 0,0 l/m 6,3 km/h (2 Bft) W-SW 249 0 min 0,0 UV-I 0 W/m 9,1 C 11,4 C 9,7 km/h (2 Bft)
14.10.2021 23:28 11,4 C 10,6 C 12,8 C 86 % 1019,5 hPa 0,0 l/m 6,5 km/h (2 Bft) W 267 0 min 0,0 UV-I 0 W/m 9,1 C 11,4 C 11,3 km/h (2 Bft)
14.10.2021 23:30 11,4 C 10,6 C 12,2 C 86 % 1019,5 hPa 0,0 l/m 6,3 km/h (2 Bft) W 278 0 min 0,0 UV-I 0 W/m 9,1 C 11,4 C 12,9 km/h (3 Bft)
14.10.2021 23:32 11,4 C 10,6 C 12,2 C 86 % 1019,4 hPa 0,0 l/m 6,6 km/h (2 Bft) W-SW 251 0 min 0,0 UV-I 0 W/m 9,1 C 11,4 C 9,7 km/h (2 Bft)
14.10.2021 23:34 11,4 C 10,6 C 12,2 C 86 % 1019,5 hPa 0,0 l/m 6,0 km/h (2 Bft) W-SW 258 0 min 0,0 UV-I 0 W/m 9,1 C 11,4 C 9,7 km/h (2 Bft)
14.10.2021 23:36 11,4 C 10,6 C 12,2 C 86 % 1019,4 hPa 0,0 l/m 7,8 km/h (2 Bft) W 262 0 min 0,0 UV-I 0 W/m 9,1 C 11,4 C 12,9 km/h (3 Bft)
14.10.2021 23:38 11,4 C 10,6 C 12,2 C 86 % 1019,4 hPa 0,0 l/m 6,6 km/h (2 Bft) W 281 0 min 0,0 UV-I 0 W/m 9,1 C 11,4 C 11,3 km/h (2 Bft)
14.10.2021 23:40 11,4 C 10,6 C 12,2 C 86 % 1019,4 hPa 0,0 l/m 6,6 km/h (2 Bft) W-NW 289 0 min 0,0 UV-I 0 W/m 9,1 C 11,4 C 9,7 km/h (2 Bft)
14.10.2021 23:42 11,4 C 10,6 C 12,2 C 86 % 1019,4 hPa 0,0 l/m 5,8 km/h (2 Bft) W 264 0 min 0,0 UV-I 0 W/m 9,1 C 11,4 C 11,3 km/h (2 Bft)
14.10.2021 23:44 11,4 C 10,6 C 12,2 C 86 % 1019,4 hPa 0,0 l/m 7,6 km/h (2 Bft) W 273 0 min 0,0 UV-I 0 W/m 9,1 C 11,4 C 11,3 km/h (2 Bft)
14.10.2021 23:46 11,4 C 10,6 C 12,2 C 86 % 1019,3 hPa 0,0 l/m 8,1 km/h (2 Bft) W-NW 284 0 min 0,0 UV-I 0 W/m 9,1 C 11,4 C 11,3 km/h (2 Bft)
14.10.2021 23:48 11,4 C 10,6 C 12,2 C 86 % 1019,3 hPa 0,0 l/m 7,8 km/h (2 Bft) W 268 0 min 0,0 UV-I 0 W/m 9,1 C 11,4 C 12,9 km/h (3 Bft)
14.10.2021 23:50 11,4 C 10,6 C 12,2 C 86 % 1019,4 hPa 0,0 l/m 7,3 km/h (2 Bft) W 281 0 min 0,0 UV-I 0 W/m 9,1 C 11,4 C 12,9 km/h (3 Bft)
14.10.2021 23:52 11,4 C 10,6 C 12,2 C 86 % 1019,3 hPa 0,0 l/m 5,0 km/h (1 Bft) W 264 0 min 0,0 UV-I 0 W/m 9,1 C 11,4 C 12,9 km/h (3 Bft)
14.10.2021 23:54 11,4 C 10,6 C 12,2 C 86 % 1019,3 hPa 0,0 l/m 5,4 km/h (2 Bft) W-SW 255 0 min 0,0 UV-I 0 W/m 9,1 C 11,4 C 9,7 km/h (2 Bft)
14.10.2021 23:56 11,4 C 10,6 C 12,2 C 86 % 1019,3 hPa 0,0 l/m 5,1 km/h (1 Bft) W-SW 256 0 min 0,0 UV-I 0 W/m 9,1 C 11,4 C 9,7 km/h (2 Bft)
14.10.2021 23:58 11,4 C 10,6 C 12,2 C 86 % 1019,3 hPa 0,0 l/m 7,8 km/h (2 Bft) W 265 0 min 0,0 UV-I 0 W/m 9,1 C 11,4 C 14,5 km/h (3 Bft)
_ Min-Zeit 05:26 00:12 14:02 14:46 23:58 - 00:40 - - - - - 01:18 06:04 09:42
Minimum _ 8,7 C 7,2 C 11,7 C 83 % 1019,3 hPa - 0,0 km/h (0 Bft) - - - - - 6,5 C 7,5 C 1,6 km/h (1 Bft)
_ Max-Zeit 14:02 13:12 23:28 11:30 00:02 17:44 15:18 - - 16:04 13:10 13:10 13:46 14:02 15:16
Maximum _ 13,8 C 20,0 C 12,8 C 92 % 1024,6 hPa 0,2 l/m 10,2 km/h
W-NW (2 Bft)
- - 2 min 1,7 UV-I 343 W/m 11,3 C 13,8 C 19,3 km/h
NW (3 Bft)
Durchschnitt _ 10,8 C 10,6 C 12,0 C 88 % 1022,0 hPa #5,8 l/m 4,9 km/h (1 Bft) W-NW - #18 min. 0,8 UV-I 75 W/m 8,9 C 10,7 C 9,2 km/h (2 Bft)